Wetterdaten: Montag, 21.02.2022
Datum Zeit Temp. Aussen Temp. o. S. Temp +5cm Feuchte Auss Luftdruck Regen Sonnenschein Regendauer Solar Windben Empfang
21.02.2022 00:00 5,4 C 3,9 C 2,2 C 92 % 996,5 hPa 0,0 l/m 0 min 2 min 0 W/m 22,5 km/h (4 Bft) 100,00 %
21.02.2022 00:02 5,4 C 4,4 C 2,2 C 92 % 996,4 hPa 0,0 l/m 0 min 2 min 0 W/m 19,3 km/h (3 Bft) 100,00 %
21.02.2022 00:04 5,3 C 4,4 C 2,2 C 93 % 996,5 hPa 0,2 l/m 0 min 2 min 0 W/m 25,7 km/h (4 Bft) 97,87 %
21.02.2022 00:08 5,4 C 4,4 C 2,2 C 93 % 996,4 hPa 0,0 l/m 0 min 4 min 0 W/m 35,4 km/h (5 Bft) 95,79 %
21.02.2022 00:10 5,4 C 4,4 C 2,2 C 93 % 996,5 hPa 0,0 l/m 0 min 2 min 0 W/m 35,4 km/h (5 Bft) 97,87 %
21.02.2022 00:12 5,4 C 4,4 C 2,2 C 93 % 996,5 hPa 0,2 l/m 0 min 2 min 0 W/m 35,4 km/h (5 Bft) 97,83 %
21.02.2022 00:14 5,5 C 4,4 C 2,2 C 93 % 996,6 hPa 0,0 l/m 0 min 2 min 0 W/m 29,0 km/h (5 Bft) 97,87 %
21.02.2022 00:16 5,6 C 5,0 C 2,2 C 94 % 996,6 hPa 0,0 l/m 0 min 2 min 0 W/m 29,0 km/h (5 Bft) 91,49 %
21.02.2022 00:18 5,6 C 5,0 C 2,2 C 94 % 996,5 hPa 0,0 l/m 0 min 2 min 0 W/m 41,8 km/h (6 Bft) 97,87 %
21.02.2022 00:20 5,6 C 5,0 C 2,2 C 94 % 996,5 hPa 0,0 l/m 0 min 2 min 0 W/m 22,5 km/h (4 Bft) 97,87 %
21.02.2022 00:22 5,6 C 5,0 C 2,2 C 94 % 996,5 hPa 0,2 l/m 0 min 2 min 0 W/m 32,2 km/h (5 Bft) 97,87 %
21.02.2022 00:24 5,6 C 5,0 C 2,2 C 94 % 996,4 hPa 0,0 l/m 0 min 2 min 0 W/m 19,3 km/h (3 Bft) 97,83 %
21.02.2022 00:26 5,6 C 5,0 C 2,2 C 94 % 996,4 hPa 0,0 l/m 0 min 2 min 0 W/m 16,1 km/h (3 Bft) 97,87 %
21.02.2022 00:28 5,6 C 5,0 C 2,2 C 94 % 996,7 hPa 0,0 l/m 0 min 2 min 0 W/m 19,3 km/h (3 Bft) 97,87 %
21.02.2022 00:30 5,6 C 5,0 C 2,2 C 94 % 996,7 hPa 0,0 l/m 0 min 2 min 0 W/m 19,3 km/h (3 Bft) 97,87 %
21.02.2022 00:32 5,6 C 5,0 C 2,2 C 94 % 996,6 hPa 0,0 l/m 0 min 2 min 0 W/m 19,3 km/h (3 Bft) 93,62 %
21.02.2022 00:34 5,6 C 5,0 C 2,2 C 94 % 996,7 hPa 0,0 l/m 0 min 2 min 0 W/m 22,5 km/h (4 Bft) 95,74 %
21.02.2022 00:36 5,6 C 5,0 C 2,2 C 94 % 996,5 hPa 0,0 l/m 0 min 2 min 0 W/m 22,5 km/h (4 Bft) 97,83 %
21.02.2022 00:38 5,6 C 5,0 C 2,2 C 94 % 996,4 hPa 0,0 l/m 0 min 2 min 0 W/m 19,3 km/h (3 Bft) 97,87 %
21.02.2022 00:40 5,7 C 5,0 C 2,2 C 94 % 996,6 hPa 0,0 l/m 0 min 0 min 0 W/m 19,3 km/h (3 Bft) 97,87 %
21.02.2022 00:42 5,7 C 5,0 C 2,2 C 94 % 996,7 hPa 0,0 l/m 0 min 0 min 0 W/m 25,7 km/h (4 Bft) 97,87 %
21.02.2022 00:44 5,7 C 5,0 C 2,2 C 94 % 996,7 hPa 0,0 l/m 0 min 0 min 0 W/m 22,5 km/h (4 Bft) 97,87 %
21.02.2022 00:46 5,8 C 5,0 C 2,8 C 94 % 996,8 hPa 0,0 l/m 0 min 0 min 0 W/m 22,5 km/h (4 Bft) 97,83 %
21.02.2022 00:48 5,8 C 5,0 C 2,8 C 94 % 996,9 hPa 0,0 l/m 0 min 0 min 0 W/m 25,7 km/h (4 Bft) 95,74 %
21.02.2022 00:50 5,9 C 5,0 C 2,8 C 94 % 996,8 hPa 0,0 l/m 0 min 0 min 0 W/m 25,7 km/h (4 Bft) 97,87 %
21.02.2022 00:52 5,9 C 5,6 C 2,8 C 94 % 997,0 hPa 0,0 l/m 0 min 0 min 0 W/m 22,5 km/h (4 Bft) 97,87 %
21.02.2022 00:54 5,9 C 5,6 C 2,8 C 94 % 996,9 hPa 0,0 l/m 0 min 0 min 0 W/m 25,7 km/h (4 Bft) 95,74 %
21.02.2022 00:59 6,1 C 5,6 C 2,8 C 93 % 997,0 hPa 0,0 l/m 0 min 0 min 0 W/m 45,1 km/h (6 Bft) 100,00 %
21.02.2022 01:00 6,1 C 5,6 C 2,8 C 93 % 997,0 hPa 0,0 l/m 0 min 0 min 0 W/m 22,5 km/h (4 Bft) 100,00 %
21.02.2022 01:02 6,1 C 5,6 C 2,8 C 93 % 997,2 hPa 0,0 l/m 0 min 0 min 0 W/m 29,0 km/h (5 Bft) 100,00 %
21.02.2022 01:04 6,1 C 5,6 C 2,8 C 93 % 997,1 hPa 0,0 l/m 0 min 0 min 0 W/m 29,0 km/h (5 Bft) 100,00 %
21.02.2022 01:06 6,1 C 5,6 C 2,8 C 93 % 997,1 hPa 0,0 l/m 0 min 0 min 0 W/m 29,0 km/h (5 Bft) 93,62 %
21.02.2022 01:08 6,2 C 5,6 C 2,8 C 93 % 997,2 hPa 0,0 l/m 0 min 0 min 0 W/m 35,4 km/h (5 Bft) 97,87 %
21.02.2022 01:10 6,2 C 5,6 C 2,8 C 93 % 997,2 hPa 0,0 l/m 0 min 0 min 0 W/m 35,4 km/h (5 Bft) 97,83 %
21.02.2022 01:12 6,2 C 5,6 C 2,8 C 93 % 997,2 hPa 0,0 l/m 0 min 0 min 0 W/m 22,5 km/h (4 Bft) 95,74 %
21.02.2022 01:14 6,1 C 5,6 C 2,8 C 93 % 997,4 hPa 0,0 l/m 0 min 0 min 0 W/m 35,4 km/h (5 Bft) 95,74 %
21.02.2022 01:16 6,1 C 5,6 C 2,8 C 93 % 997,5 hPa 0,0 l/m 0 min 0 min 0 W/m 22,5 km/h (4 Bft) 93,62 %
21.02.2022 01:18 6,1 C 5,6 C 2,8 C 93 % 997,5 hPa 0,0 l/m 0 min 0 min 0 W/m 41,8 km/h (6 Bft) 95,74 %
21.02.2022 01:20 6,1 C 5,6 C 2,8 C 93 % 997,6 hPa 0,0 l/m 0 min 0 min 0 W/m 29,0 km/h (5 Bft) 95,74 %
21.02.2022 01:22 6,1 C 5,6 C 2,8 C 92 % 997,6 hPa 0,0 l/m 0 min 0 min 0 W/m 29,0 km/h (5 Bft) 95,65 %
21.02.2022 01:24 6,2 C 5,6 C 2,8 C 92 % 997,7 hPa 0,0 l/m 0 min 0 min 0 W/m 29,0 km/h (5 Bft) 93,62 %
21.02.2022 01:26 6,2 C 5,6 C 2,8 C 92 % 997,7 hPa 0,0 l/m 0 min 0 min 0 W/m 25,7 km/h (4 Bft) 95,74 %
21.02.2022 01:28 6,2 C 5,6 C 2,8 C 92 % 997,7 hPa 0,0 l/m 0 min 0 min 0 W/m 29,0 km/h (5 Bft) 97,87 %
21.02.2022 01:30 6,2 C 5,6 C 2,8 C 92 % 997,7 hPa 0,0 l/m 0 min 0 min 0 W/m 22,5 km/h (4 Bft) 97,87 %
21.02.2022 01:32 6,2 C 5,6 C 2,8 C 92 % 997,8 hPa 0,0 l/m 0 min 0 min 0 W/m 32,2 km/h (5 Bft) 97,14 %
21.02.2022 01:34 6,2 C 5,6 C 2,8 C 92 % 997,8 hPa 0,0 l/m 0 min 0 min 0 W/m 35,4 km/h (5 Bft) 97,87 %
21.02.2022 01:36 6,2 C 5,6 C 2,8 C 91 % 997,9 hPa 0,0 l/m 0 min 2 min 0 W/m 25,7 km/h (4 Bft) 97,83 %
21.02.2022 01:38 6,3 C 5,6 C 2,8 C 91 % 998,2 hPa 0,2 l/m 0 min 2 min 0 W/m 48,3 km/h (6 Bft) 97,87 %
21.02.2022 01:40 6,2 C 5,0 C 2,2 C 91 % 998,3 hPa 0,0 l/m 0 min 2 min 0 W/m 38,6 km/h (5 Bft) 97,87 %
21.02.2022 01:42 6,0 C 5,0 C 2,2 C 91 % 998,6 hPa 0,2 l/m 0 min 2 min 0 W/m 70,8 km/h (8 Bft) 97,87 %
21.02.2022 01:44 5,8 C 5,0 C 2,2 C 91 % 998,3 hPa 0,0 l/m 0 min 2 min 0 W/m 38,6 km/h (5 Bft) 100,00 %
21.02.2022 01:46 5,8 C 4,4 C 2,2 C 91 % 998,3 hPa 0,2 l/m 0 min 2 min 0 W/m 35,4 km/h (5 Bft) 97,87 %
21.02.2022 01:48 5,7 C 4,4 C 2,2 C 91 % 998,2 hPa 0,0 l/m 0 min 2 min 0 W/m 29,0 km/h (5 Bft) 100,00 %
21.02.2022 01:50 5,6 C 4,4 C 2,2 C 91 % 998,3 hPa 0,0 l/m 0 min 2 min 0 W/m 29,0 km/h (5 Bft) 100,00 %
21.02.2022 01:52 5,6 C 4,4 C 2,2 C 91 % 998,3 hPa 0,0 l/m 0 min 0 min 0 W/m 19,3 km/h (3 Bft) 100,00 %
21.02.2022 01:54 5,6 C 5,0 C 2,2 C 92 % 998,2 hPa 0,0 l/m 0 min 0 min 0 W/m 22,5 km/h (4 Bft) 100,00 %
21.02.2022 01:56 5,6 C 5,0 C 2,2 C 92 % 998,1 hPa 0,0 l/m 0 min 0 min 0 W/m 19,3 km/h (3 Bft) 100,00 %
21.02.2022 01:58 5,6 C 5,0 C 2,2 C 92 % 998,0 hPa 0,0 l/m 0 min 2 min 0 W/m 22,5 km/h (4 Bft) 100,00 %
21.02.2022 02:00 5,6 C 5,0 C 2,2 C 92 % 998,2 hPa 0,0 l/m 0 min 2 min 0 W/m 25,7 km/h (4 Bft) 100,00 %
21.02.2022 02:02 5,6 C 5,0 C 2,2 C 92 % 998,2 hPa 0,0 l/m 0 min 0 min 0 W/m 22,5 km/h (4 Bft) 100,00 %
21.02.2022 02:04 5,6 C 5,0 C 2,2 C 92 % 998,2 hPa 0,0 l/m 0 min 0 min 0 W/m 22,5 km/h (4 Bft) 100,00 %
21.02.2022 02:06 5,6 C 5,0 C 2,2 C 92 % 998,2 hPa 0,0 l/m 0 min 0 min 0 W/m 22,5 km/h (4 Bft) 100,00 %
21.02.2022 02:08 5,6 C 5,0 C 2,2 C 92 % 998,2 hPa 0,0 l/m 0 min 0 min 0 W/m 22,5 km/h (4 Bft) 100,00 %
21.02.2022 02:10 5,5 C 5,0 C 2,2 C 92 % 998,4 hPa 0,0 l/m 0 min 0 min 0 W/m 19,3 km/h (3 Bft) 100,00 %
21.02.2022 02:12 5,5 C 5,0 C 1,7 C 92 % 998,5 hPa 0,0 l/m 0 min 0 min 0 W/m 25,7 km/h (4 Bft) 100,00 %
21.02.2022 02:14 5,5 C 5,0 C 1,7 C 92 % 998,5 hPa 0,0 l/m 0 min 0 min 0 W/m 32,2 km/h (5 Bft) 100,00 %
21.02.2022 02:16 5,4 C 5,0 C 1,7 C 92 % 998,4 hPa 0,0 l/m 0 min 0 min 0 W/m 29,0 km/h (5 Bft) 100,00 %
21.02.2022 02:18 5,4 C 5,0 C 1,7 C 91 % 998,3 hPa 0,0 l/m 0 min 0 min 0 W/m 25,7 km/h (4 Bft) 100,00 %
21.02.2022 02:20 5,4 C 5,0 C 1,7 C 91 % 998,6 hPa 0,0 l/m 0 min 0 min 0 W/m 38,6 km/h (5 Bft) 100,00 %
21.02.2022 02:22 5,4 C 5,0 C 1,7 C 91 % 998,5 hPa 0,0 l/m 0 min 0 min 0 W/m 29,0 km/h (5 Bft) 100,00 %
21.02.2022 02:24 5,4 C 5,0 C 1,7 C 90 % 998,5 hPa 0,0 l/m 0 min 0 min 0 W/m 32,2 km/h (5 Bft) 97,87 %
21.02.2022 02:26 5,4 C 5,0 C 1,7 C 90 % 998,6 hPa 0,0 l/m 0 min 0 min 0 W/m 35,4 km/h (5 Bft) 100,00 %
21.02.2022 02:28 5,4 C 5,0 C 1,7 C 90 % 998,7 hPa 0,0 l/m 0 min 0 min 0 W/m 22,5 km/h (4 Bft) 97,87 %
21.02.2022 02:30 5,4 C 5,0 C 1,7 C 90 % 998,7 hPa 0,0 l/m 0 min 0 min 0 W/m 29,0 km/h (5 Bft) 100,00 %
21.02.2022 02:32 5,4 C 4,4 C 1,7 C 90 % 998,8 hPa 0,0 l/m 0 min 0 min 0 W/m 38,6 km/h (5 Bft) 100,00 %
21.02.2022 02:34 5,3 C 4,4 C 1,7 C 89 % 998,8 hPa 0,0 l/m 0 min 0 min 0 W/m 35,4 km/h (5 Bft) 100,00 %
21.02.2022 02:36 5,3 C 4,4 C 1,7 C 89 % 998,8 hPa 0,0 l/m 0 min 0 min 0 W/m 41,8 km/h (6 Bft) 100,00 %
21.02.2022 02:38 5,3 C 4,4 C 1,7 C 89 % 998,9 hPa 0,0 l/m 0 min 0 min 0 W/m 22,5 km/h (4 Bft) 100,00 %
21.02.2022 02:40 5,3 C 4,4 C 1,7 C 89 % 998,9 hPa 0,0 l/m 0 min 0 min 0 W/m 22,5 km/h (4 Bft) 100,00 %
21.02.2022 02:42 5,2 C 4,4 C 1,7 C 88 % 998,9 hPa 0,0 l/m 0 min 0 min 0 W/m 22,5 km/h (4 Bft) 95,83 %
21.02.2022 02:44 5,2 C 4,4 C 1,7 C 88 % 998,9 hPa 0,0 l/m 0 min 0 min 0 W/m 19,3 km/h (3 Bft) 97,83 %
21.02.2022 02:46 5,2 C 4,4 C 1,7 C 88 % 999,0 hPa 0,0 l/m 0 min 0 min 0 W/m 22,5 km/h (4 Bft) 97,87 %
21.02.2022 02:48 5,2 C 4,4 C 1,7 C 88 % 999,0 hPa 0,0 l/m 0 min 0 min 0 W/m 25,7 km/h (4 Bft) 97,87 %
21.02.2022 02:50 5,2 C 4,4 C 1,1 C 88 % 999,0 hPa 0,0 l/m 0 min 0 min 0 W/m 25,7 km/h (4 Bft) 97,87 %
21.02.2022 02:52 5,2 C 4,4 C 1,1 C 88 % 999,0 hPa 0,0 l/m 0 min 0 min 0 W/m 41,8 km/h (6 Bft) 97,87 %
21.02.2022 02:54 5,2 C 4,4 C 1,1 C 88 % 999,0 hPa 0,0 l/m 0 min 0 min 0 W/m 41,8 km/h (6 Bft) 97,83 %
21.02.2022 02:56 5,2 C 4,4 C 1,1 C 87 % 999,1 hPa 0,0 l/m 0 min 0 min 0 W/m 32,2 km/h (5 Bft) 97,87 %
21.02.2022 02:58 5,2 C 4,4 C 1,1 C 87 % 999,1 hPa 0,0 l/m 0 min 0 min 0 W/m 25,7 km/h (4 Bft) 97,87 %
21.02.2022 03:00 5,2 C 4,4 C 1,1 C 86 % 999,1 hPa 0,0 l/m 0 min 0 min 0 W/m 25,7 km/h (4 Bft) 97,87 %
21.02.2022 03:02 5,2 C 4,4 C 1,1 C 86 % 999,2 hPa 0,0 l/m 0 min 0 min 0 W/m 41,8 km/h (6 Bft) 97,87 %
21.02.2022 03:04 5,3 C 4,4 C 1,1 C 86 % 999,2 hPa 0,0 l/m 0 min 0 min 0 W/m 22,5 km/h (4 Bft) 97,87 %
21.02.2022 03:06 5,3 C 4,4 C 1,1 C 86 % 999,2 hPa 0,0 l/m 0 min 0 min 0 W/m 38,6 km/h (5 Bft) 95,65 %
21.02.2022 03:08 5,3 C 4,4 C 1,1 C 85 % 999,1 hPa 0,0 l/m 0 min 0 min 0 W/m 48,3 km/h (6 Bft) 97,87 %
21.02.2022 03:10 5,3 C 4,4 C 1,1 C 85 % 999,1 hPa 0,0 l/m 0 min 0 min 0 W/m 29,0 km/h (5 Bft) 97,87 %
21.02.2022 03:12 5,3 C 4,4 C 1,1 C 85 % 999,1 hPa 0,0 l/m 0 min 0 min 0 W/m 22,5 km/h (4 Bft) 100,00 %
21.02.2022 03:14 5,3 C 4,4 C 1,1 C 85 % 999,2 hPa 0,0 l/m 0 min 0 min 0 W/m 25,7 km/h (4 Bft) 100,00 %
21.02.2022 03:16 5,3 C 4,4 C 1,1 C 84 % 999,1 hPa 0,0 l/m 0 min 0 min 0 W/m 22,5 km/h (4 Bft) 97,87 %
21.02.2022 03:18 5,3 C 4,4 C 1,1 C 84 % 999,1 hPa 0,0 l/m 0 min 0 min 0 W/m 25,7 km/h (4 Bft) 100,00 %
21.02.2022 03:20 5,3 C 4,4 C 1,1 C 84 % 999,1 hPa 0,0 l/m 0 min 0 min 0 W/m 25,7 km/h (4 Bft) 97,87 %
21.02.2022 03:22 5,3 C 4,4 C 1,1 C 84 % 999,1 hPa 0,0 l/m 0 min 0 min 0 W/m 32,2 km/h (5 Bft) 95,74 %
21.02.2022 03:24 5,3 C 4,4 C 1,1 C 84 % 999,2 hPa 0,0 l/m 0 min 0 min 0 W/m 29,0 km/h (5 Bft) 97,87 %
21.02.2022 03:26 5,3 C 4,4 C 1,1 C 84 % 999,2 hPa 0,0 l/m 0 min 0 min 0 W/m 35,4 km/h (5 Bft) 97,87 %
21.02.2022 03:28 5,3 C 4,4 C 1,1 C 83 % 999,1 hPa 0,0 l/m 0 min 0 min 0 W/m 19,3 km/h (3 Bft) 97,87 %
21.02.2022 03:30 5,3 C 4,4 C 1,1 C 84 % 999,3 hPa 0,0 l/m 0 min 0 min 0 W/m 22,5 km/h (4 Bft) 97,83 %
21.02.2022 03:32 5,3 C 4,4 C 1,1 C 83 % 999,2 hPa 0,0 l/m 0 min 0 min 0 W/m 25,7 km/h (4 Bft) 97,92 %
21.02.2022 03:34 5,3 C 4,4 C 1,1 C 83 % 999,3 hPa 0,0 l/m 0 min 0 min 0 W/m 22,5 km/h (4 Bft) 97,87 %
21.02.2022 03:36 5,3 C 4,4 C 1,1 C 84 % 999,3 hPa 0,0 l/m 0 min 0 min 0 W/m 35,4 km/h (5 Bft) 97,87 %
21.02.2022 03:38 5,3 C 4,4 C 1,1 C 84 % 999,2 hPa 0,0 l/m 0 min 2 min 0 W/m 19,3 km/h (3 Bft) 95,74 %
21.02.2022 03:40 5,3 C 4,4 C 1,1 C 84 % 999,3 hPa 0,0 l/m 0 min 2 min 0 W/m 19,3 km/h (3 Bft) 95,65 %
21.02.2022 03:42 5,3 C 4,4 C 1,7 C 84 % 999,5 hPa 0,0 l/m 0 min 0 min 0 W/m 22,5 km/h (4 Bft) 93,62 %
21.02.2022 03:44 5,3 C 4,4 C 1,7 C 83 % 999,5 hPa 0,0 l/m 0 min 2 min 0 W/m 41,8 km/h (6 Bft) 93,62 %
21.02.2022 03:46 5,3 C 4,4 C 1,7 C 83 % 999,9 hPa 0,0 l/m 0 min 2 min 0 W/m 32,2 km/h (5 Bft) 95,74 %
21.02.2022 03:48 5,2 C 4,4 C 1,7 C 83 % 999,9 hPa 0,0 l/m 0 min 2 min 0 W/m 35,4 km/h (5 Bft) 95,74 %
21.02.2022 03:50 5,2 C 4,4 C 1,1 C 84 % 999,9 hPa 0,0 l/m 0 min 2 min 0 W/m 22,5 km/h (4 Bft) 95,74 %
21.02.2022 03:52 5,1 C 3,9 C 1,1 C 84 % 999,8 hPa 0,0 l/m 0 min 2 min 0 W/m 22,5 km/h (4 Bft) 95,65 %
21.02.2022 03:54 5,0 C 3,9 C 1,1 C 85 % 999,7 hPa 0,0 l/m 0 min 2 min 0 W/m 22,5 km/h (4 Bft) 93,62 %
21.02.2022 03:56 4,9 C 3,9 C 1,1 C 85 % 999,8 hPa 0,0 l/m 0 min 2 min 0 W/m 19,3 km/h (3 Bft) 95,74 %
21.02.2022 03:58 4,9 C 3,9 C 1,1 C 85 % 999,7 hPa 0,0 l/m 0 min 2 min 0 W/m 25,7 km/h (4 Bft) 97,87 %
21.02.2022 04:00 4,8 C 3,9 C 1,1 C 85 % 999,7 hPa 0,0 l/m 0 min 2 min 0 W/m 25,7 km/h (4 Bft) 95,74 %
21.02.2022 04:02 4,7 C 3,9 C 1,1 C 86 % 999,6 hPa 0,0 l/m 0 min 2 min 0 W/m 22,5 km/h (4 Bft) 97,14 %
21.02.2022 04:04 4,7 C 3,9 C 0,6 C 86 % 999,6 hPa 0,0 l/m 0 min 2 min 0 W/m 19,3 km/h (3 Bft) 95,65 %
21.02.2022 04:06 4,6 C 3,9 C 0,6 C 86 % 999,6 hPa 0,0 l/m 0 min 2 min 0 W/m 16,1 km/h (3 Bft) 97,87 %
21.02.2022 04:08 4,5 C 3,3 C 0,6 C 86 % 999,7 hPa 0,0 l/m 0 min 2 min 0 W/m 19,3 km/h (3 Bft) 97,87 %
21.02.2022 04:10 4,4 C 3,3 C 0,6 C 86 % 999,6 hPa 0,0 l/m 0 min 2 min 0 W/m 19,3 km/h (3 Bft) 97,87 %
21.02.2022 04:12 4,3 C 3,3 C 0,6 C 86 % 999,7 hPa 0,0 l/m 0 min 0 min 0 W/m 22,5 km/h (4 Bft) 93,62 %
21.02.2022 04:14 4,2 C 3,3 C 0,6 C 87 % 999,7 hPa 0,0 l/m 0 min 2 min 0 W/m 19,3 km/h (3 Bft) 97,83 %
21.02.2022 04:16 4,2 C 3,3 C 0,6 C 87 % 999,7 hPa 0,0 l/m 0 min 2 min 0 W/m 29,0 km/h (5 Bft) 97,87 %
21.02.2022 04:18 4,1 C 3,3 C 0,6 C 87 % 999,7 hPa 0,0 l/m 0 min 2 min 0 W/m 19,3 km/h (3 Bft) 93,62 %
21.02.2022 04:20 4,1 C 3,3 C 0,6 C 88 % 999,7 hPa 0,0 l/m 0 min 0 min 0 W/m 16,1 km/h (3 Bft) 97,87 %
21.02.2022 04:22 4,0 C 3,3 C 0,6 C 88 % 999,7 hPa 0,0 l/m 0 min 2 min 0 W/m 22,5 km/h (4 Bft) 97,87 %
21.02.2022 04:24 3,9 C 3,3 C 0,6 C 88 % 999,7 hPa 0,0 l/m 0 min 2 min 0 W/m 25,7 km/h (4 Bft) 97,87 %
21.02.2022 04:26 3,9 C 3,3 C 0,6 C 88 % 999,7 hPa 0,0 l/m 0 min 2 min 0 W/m 19,3 km/h (3 Bft) 95,74 %
21.02.2022 04:28 4,0 C 3,3 C 0,6 C 89 % 999,7 hPa 0,0 l/m 0 min 2 min 0 W/m 16,1 km/h (3 Bft) 95,65 %
21.02.2022 04:30 4,0 C 3,3 C 0,6 C 89 % 999,8 hPa 0,2 l/m 0 min 0 min 0 W/m 22,5 km/h (4 Bft) 97,87 %
21.02.2022 04:32 4,1 C 3,3 C 0,6 C 89 % 999,8 hPa 0,0 l/m 0 min 2 min 0 W/m 22,5 km/h (4 Bft) 93,62 %
21.02.2022 04:34 4,1 C 3,3 C 0,6 C 89 % 999,8 hPa 0,0 l/m 0 min 0 min 0 W/m 22,5 km/h (4 Bft) 95,74 %
21.02.2022 04:36 4,1 C 3,3 C 0,6 C 89 % 999,8 hPa 0,0 l/m 0 min 2 min 0 W/m 19,3 km/h (3 Bft) 95,74 %
21.02.2022 04:38 4,1 C 3,9 C 1,1 C 89 % 999,8 hPa 0,0 l/m 0 min 0 min 0 W/m 32,2 km/h (5 Bft) 97,83 %
21.02.2022 04:40 4,2 C 3,9 C 1,1 C 89 % 999,9 hPa 0,0 l/m 0 min 2 min 0 W/m 22,5 km/h (4 Bft) 97,87 %
21.02.2022 04:42 4,2 C 3,9 C 1,1 C 88 % 999,9 hPa 0,0 l/m 0 min 0 min 0 W/m 38,6 km/h (5 Bft) 93,62 %
21.02.2022 04:44 4,3 C 3,9 C 0,6 C 87 % 999,9 hPa 0,0 l/m 0 min 2 min 0 W/m 25,7 km/h (4 Bft) 97,87 %
21.02.2022 04:46 4,2 C 3,9 C 0,6 C 85 % 1000,2 hPa 0,0 l/m 0 min 2 min 0 W/m 32,2 km/h (5 Bft) 95,74 %
21.02.2022 04:48 4,2 C 3,3 C 0,6 C 84 % 1000,1 hPa 0,0 l/m 0 min 2 min 0 W/m 19,3 km/h (3 Bft) 100,00 %
21.02.2022 04:50 4,1 C 3,3 C 0,6 C 84 % 1000,1 hPa 0,0 l/m 0 min 2 min 0 W/m 19,3 km/h (3 Bft) 95,74 %
21.02.2022 04:52 4,1 C 3,3 C 0,6 C 84 % 1000,0 hPa 0,0 l/m 0 min 2 min 0 W/m 19,3 km/h (3 Bft) 95,74 %
21.02.2022 04:54 4,1 C 3,3 C 0,0 C 84 % 999,9 hPa 0,0 l/m 0 min 2 min 0 W/m 22,5 km/h (4 Bft) 97,83 %
21.02.2022 04:56 4,1 C 3,3 C 0,0 C 84 % 1000,0 hPa 0,0 l/m 0 min 2 min 0 W/m 35,4 km/h (5 Bft) 97,87 %
21.02.2022 04:58 4,1 C 3,3 C 0,0 C 84 % 1000,1 hPa 0,0 l/m 0 min 2 min 0 W/m 22,5 km/h (4 Bft) 100,00 %
21.02.2022 05:00 4,1 C 3,3 C 0,6 C 84 % 1000,0 hPa 0,0 l/m 0 min 2 min 0 W/m 29,0 km/h (5 Bft) 100,00 %
21.02.2022 05:02 4,1 C 3,3 C 0,6 C 84 % 1000,1 hPa 0,0 l/m 0 min 2 min 0 W/m 22,5 km/h (4 Bft) 97,87 %
21.02.2022 05:04 4,1 C 3,3 C 0,6 C 84 % 1000,2 hPa 0,0 l/m 0 min 2 min 0 W/m 19,3 km/h (3 Bft) 100,00 %
21.02.2022 05:06 4,0 C 3,3 C 0,6 C 84 % 1000,2 hPa 0,0 l/m 0 min 2 min 0 W/m 25,7 km/h (4 Bft) 100,00 %
21.02.2022 05:08 4,0 C 3,3 C 0,6 C 84 % 1000,2 hPa 0,0 l/m 0 min 0 min 0 W/m 22,5 km/h (4 Bft) 100,00 %
21.02.2022 05:10 4,0 C 3,3 C 0,6 C 84 % 1000,1 hPa 0,0 l/m 0 min 2 min 0 W/m 25,7 km/h (4 Bft) 100,00 %
21.02.2022 05:12 4,0 C 3,3 C 0,6 C 85 % 1000,2 hPa 0,0 l/m 0 min 0 min 0 W/m 22,5 km/h (4 Bft) 100,00 %
21.02.2022 05:14 3,9 C 3,3 C 0,6 C 85 % 1000,2 hPa 0,0 l/m 0 min 0 min 0 W/m 25,7 km/h (4 Bft) 100,00 %
21.02.2022 05:16 3,9 C 3,3 C 0,6 C 85 % 1000,3 hPa 0,0 l/m 0 min 0 min 0 W/m 25,7 km/h (4 Bft) 100,00 %
21.02.2022 05:18 3,9 C 3,3 C 0,6 C 85 % 1000,2 hPa 0,0 l/m 0 min 0 min 0 W/m 19,3 km/h (3 Bft) 100,00 %
21.02.2022 05:20 3,9 C 3,3 C 0,6 C 85 % 1000,2 hPa 0,0 l/m 0 min 0 min 0 W/m 19,3 km/h (3 Bft) 100,00 %
21.02.2022 05:22 3,9 C 3,3 C 0,6 C 85 % 1000,1 hPa 0,0 l/m 0 min 0 min 0 W/m 22,5 km/h (4 Bft) 100,00 %
21.02.2022 05:24 3,8 C 3,3 C 0,6 C 86 % 1000,2 hPa 0,0 l/m 0 min 0 min 0 W/m 22,5 km/h (4 Bft) 95,83 %
21.02.2022 05:26 3,8 C 3,3 C 0,6 C 86 % 1000,4 hPa 0,0 l/m 0 min 0 min 0 W/m 16,1 km/h (3 Bft) 97,83 %
21.02.2022 05:28 3,8 C 3,3 C 0,6 C 86 % 1000,4 hPa 0,0 l/m 0 min 0 min 0 W/m 29,0 km/h (5 Bft) 100,00 %
21.02.2022 05:30 3,8 C 3,3 C 0,6 C 86 % 1000,3 hPa 0,0 l/m 0 min 2 min 0 W/m 35,4 km/h (5 Bft) 100,00 %
21.02.2022 05:32 3,8 C 3,3 C 0,0 C 87 % 1000,4 hPa 0,0 l/m 0 min 2 min 0 W/m 45,1 km/h (6 Bft) 100,00 %
21.02.2022 05:34 3,8 C 2,8 C 0,0 C 87 % 1000,3 hPa 0,0 l/m 0 min 2 min 0 W/m 35,4 km/h (5 Bft) 97,92 %
21.02.2022 05:36 3,8 C 2,8 C 0,0 C 87 % 1000,2 hPa 0,0 l/m 0 min 2 min 0 W/m 35,4 km/h (5 Bft) 100,00 %
21.02.2022 05:38 3,7 C 2,8 C 0,0 C 87 % 1000,2 hPa 0,0 l/m 0 min 2 min 0 W/m 32,2 km/h (5 Bft) 100,00 %
21.02.2022 05:40 3,7 C 2,8 C 0,0 C 87 % 1000,2 hPa 0,2 l/m 0 min 2 min 0 W/m 22,5 km/h (4 Bft) 97,87 %
21.02.2022 05:42 3,7 C 2,8 C 0,0 C 88 % 1000,2 hPa 0,0 l/m 0 min 2 min 0 W/m 25,7 km/h (4 Bft) 97,87 %
21.02.2022 05:44 3,7 C 2,8 C 0,0 C 88 % 1000,4 hPa 0,0 l/m 0 min 2 min 0 W/m 29,0 km/h (5 Bft) 97,92 %
21.02.2022 05:46 3,7 C 2,8 C 0,0 C 88 % 1000,4 hPa 0,0 l/m 0 min 2 min 0 W/m 25,7 km/h (4 Bft) 97,92 %
21.02.2022 05:48 3,7 C 3,3 C 0,0 C 88 % 1000,4 hPa 0,0 l/m 0 min 2 min 0 W/m 29,0 km/h (5 Bft) 95,65 %
21.02.2022 05:50 3,8 C 3,3 C 0,0 C 88 % 1000,4 hPa 0,0 l/m 0 min 2 min 0 W/m 29,0 km/h (5 Bft) 97,87 %
21.02.2022 05:52 3,8 C 3,3 C 0,0 C 87 % 1000,4 hPa 0,0 l/m 0 min 2 min 0 W/m 29,0 km/h (5 Bft) 97,87 %
21.02.2022 05:54 3,9 C 3,3 C 0,0 C 87 % 1000,3 hPa 0,0 l/m 0 min 0 min 0 W/m 16,1 km/h (3 Bft) 97,87 %
21.02.2022 05:56 3,9 C 3,3 C 0,0 C 87 % 1000,4 hPa 0,0 l/m 0 min 0 min 0 W/m 22,5 km/h (4 Bft) 97,87 %
21.02.2022 05:58 3,9 C 3,3 C 0,0 C 87 % 1000,4 hPa 0,0 l/m 0 min 0 min 0 W/m 16,1 km/h (3 Bft) 97,87 %
21.02.2022 06:00 3,9 C 3,3 C 0,0 C 86 % 1000,5 hPa 0,0 l/m 0 min 0 min 0 W/m 19,3 km/h (3 Bft) 95,65 %
21.02.2022 06:02 3,9 C 3,3 C 0,0 C 86 % 1000,5 hPa 0,0 l/m 0 min 0 min 0 W/m 19,3 km/h (3 Bft) 97,87 %
21.02.2022 06:04 3,9 C 3,3 C 0,0 C 86 % 1000,6 hPa 0,0 l/m 0 min 2 min 0 W/m 16,1 km/h (3 Bft) 95,74 %
21.02.2022 06:08 3,9 C 3,3 C 0,0 C 86 % 1000,7 hPa 0,0 l/m 0 min 0 min 0 W/m 25,7 km/h (4 Bft) 97,56 %
21.02.2022 06:10 3,9 C 3,3 C 0,0 C 86 % 1000,7 hPa 0,0 l/m 0 min 0 min 0 W/m 35,4 km/h (5 Bft) 97,87 %
21.02.2022 06:12 3,9 C 3,3 C 0,0 C 86 % 1000,8 hPa 0,0 l/m 0 min 0 min 0 W/m 25,7 km/h (4 Bft) 97,87 %
21.02.2022 06:14 3,9 C 3,3 C 0,0 C 86 % 1000,8 hPa 0,0 l/m 0 min 0 min 0 W/m 38,6 km/h (5 Bft) 100,00 %
21.02.2022 06:16 3,9 C 3,3 C 0,0 C 86 % 1000,7 hPa 0,0 l/m 0 min 0 min 0 W/m 45,1 km/h (6 Bft) 97,87 %
21.02.2022 06:18 3,9 C 3,3 C 0,0 C 86 % 1000,7 hPa 0,0 l/m 0 min 0 min 0 W/m 35,4 km/h (5 Bft) 97,87 %
21.02.2022 06:20 3,9 C 3,3 C 0,0 C 87 % 1000,6 hPa 0,0 l/m 0 min 0 min 0 W/m 19,3 km/h (3 Bft) 95,74 %
21.02.2022 06:22 3,8 C 3,3 C 0,0 C 87 % 1000,7 hPa 0,0 l/m 0 min 0 min 0 W/m 25,7 km/h (4 Bft) 94,34 %
21.02.2022 06:24 3,8 C 2,8 C 0,0 C 87 % 1000,8 hPa 0,0 l/m 0 min 0 min 0 W/m 19,3 km/h (3 Bft) 100,00 %
21.02.2022 06:26 3,8 C 2,8 C 0,0 C 87 % 1000,8 hPa 0,0 l/m 0 min 2 min 0 W/m 25,7 km/h (4 Bft) 100,00 %
21.02.2022 06:28 3,8 C 2,8 C 0,0 C 87 % 1000,9 hPa 0,0 l/m 0 min 2 min 0 W/m 22,5 km/h (4 Bft) 97,92 %
21.02.2022 06:30 3,7 C 2,8 C 0,0 C 88 % 1000,9 hPa 0,0 l/m 0 min 2 min 0 W/m 25,7 km/h (4 Bft) 97,92 %
21.02.2022 06:32 3,6 C 2,8 C 0,0 C 88 % 1000,7 hPa 0,0 l/m 0 min 2 min 0 W/m 29,0 km/h (5 Bft) 95,83 %
21.02.2022 06:34 3,5 C 2,8 C 0,0 C 88 % 1000,8 hPa 0,0 l/m 0 min 2 min 0 W/m 22,5 km/h (4 Bft) 93,48 %
21.02.2022 06:36 3,4 C 2,2 C 0,0 C 89 % 1000,6 hPa 0,0 l/m 0 min 2 min 0 W/m 29,0 km/h (5 Bft) 97,87 %
21.02.2022 06:38 3,3 C 2,2 C -0,6 C 89 % 1000,5 hPa 0,0 l/m 0 min 2 min 0 W/m 38,6 km/h (5 Bft) 97,92 %
21.02.2022 06:40 3,2 C 2,2 C -0,6 C 89 % 1000,5 hPa 0,2 l/m 0 min 2 min 0 W/m 25,7 km/h (4 Bft) 95,83 %
21.02.2022 06:42 3,1 C 2,2 C -0,6 C 89 % 1000,6 hPa 0,0 l/m 0 min 2 min 0 W/m 38,6 km/h (5 Bft) 97,87 %
21.02.2022 06:44 3,1 C 2,2 C -0,6 C 89 % 1000,5 hPa 0,0 l/m 0 min 2 min 0 W/m 22,5 km/h (4 Bft) 97,14 %
21.02.2022 06:46 3,1 C 2,2 C -0,6 C 90 % 1000,5 hPa 0,0 l/m 0 min 2 min 0 W/m 22,5 km/h (4 Bft) 100,00 %
21.02.2022 06:48 3,1 C 2,2 C -0,6 C 90 % 1000,4 hPa 0,0 l/m 0 min 0 min 0 W/m 29,0 km/h (5 Bft) 97,87 %
21.02.2022 06:50 3,1 C 2,2 C -0,6 C 90 % 1000,5 hPa 0,0 l/m 0 min 2 min 0 W/m 32,2 km/h (5 Bft) 100,00 %
21.02.2022 06:52 3,1 C 2,2 C -0,6 C 90 % 1000,5 hPa 0,0 l/m 0 min 2 min 0 W/m 19,3 km/h (3 Bft) 95,74 %
21.02.2022 06:54 3,0 C 2,2 C -0,6 C 90 % 1000,6 hPa 0,0 l/m 0 min 2 min 0 W/m 22,5 km/h (4 Bft) 95,74 %
21.02.2022 06:56 3,0 C 2,2 C -0,6 C 90 % 1000,7 hPa 0,0 l/m 0 min 2 min 0 W/m 25,7 km/h (4 Bft) 97,87 %
21.02.2022 06:58 2,9 C 2,2 C -0,6 C 91 % 1000,7 hPa 0,0 l/m 0 min 2 min 0 W/m 48,3 km/h (6 Bft) 95,74 %
21.02.2022 07:00 2,9 C 2,2 C -0,6 C 91 % 1000,6 hPa 0,0 l/m 0 min 2 min 0 W/m 25,7 km/h (4 Bft) 97,87 %
21.02.2022 07:02 2,8 C 2,2 C -0,6 C 91 % 1000,6 hPa 0,0 l/m 0 min 2 min 0 W/m 38,6 km/h (5 Bft) 97,83 %
21.02.2022 07:04 2,7 C 1,7 C -0,6 C 91 % 1000,7 hPa 0,0 l/m 0 min 2 min 0 W/m 41,8 km/h (6 Bft) 98,11 %
21.02.2022 07:06 2,6 C 1,7 C -0,6 C 91 % 1000,6 hPa 0,0 l/m 0 min 2 min 0 W/m 29,0 km/h (5 Bft) 97,87 %
21.02.2022 07:08 2,6 C 1,7 C -0,6 C 91 % 1000,6 hPa 0,0 l/m 0 min 2 min 0 W/m 22,5 km/h (4 Bft) 97,87 %
21.02.2022 07:10 2,4 C 1,7 C -1,1 C 91 % 1000,6 hPa 0,0 l/m 0 min 2 min 0 W/m 25,7 km/h (4 Bft) 97,83 %
21.02.2022 07:12 2,3 C 1,1 C -1,1 C 91 % 1000,6 hPa 0,0 l/m 0 min 0 min 0 W/m 22,5 km/h (4 Bft) 97,87 %
21.02.2022 07:14 2,2 C 1,1 C -1,1 C 91 % 1000,6 hPa 0,0 l/m 0 min 0 min 0 W/m 19,3 km/h (3 Bft) 95,74 %
21.02.2022 07:16 2,2 C 1,1 C -1,1 C 92 % 1000,5 hPa 0,0 l/m 0 min 0 min 0 W/m 35,4 km/h (5 Bft) 97,56 %
21.02.2022 07:18 2,1 C 1,1 C -1,1 C 92 % 1000,6 hPa 0,0 l/m 0 min 0 min 0 W/m 16,1 km/h (3 Bft) 97,87 %
21.02.2022 07:20 2,1 C 1,1 C -1,1 C 92 % 1000,6 hPa 0,0 l/m 0 min 0 min 0 W/m 16,1 km/h (3 Bft) 97,87 %
21.02.2022 07:22 2,1 C 1,7 C -1,1 C 92 % 1000,7 hPa 0,0 l/m 0 min 0 min 0 W/m 22,5 km/h (4 Bft) 98,08 %
21.02.2022 07:24 2,1 C 1,7 C -1,1 C 93 % 1000,6 hPa 0,0 l/m 0 min 0 min 0 W/m 32,2 km/h (5 Bft) 97,87 %
21.02.2022 07:26 2,2 C 1,7 C -1,1 C 93 % 1000,7 hPa 0,0 l/m 0 min 0 min 0 W/m 19,3 km/h (3 Bft) 97,87 %
21.02.2022 07:28 2,2 C 1,7 C -0,6 C 93 % 1000,8 hPa 0,0 l/m 0 min 0 min 0 W/m 19,3 km/h (3 Bft) 97,87 %
21.02.2022 07:30 2,2 C 1,7 C -0,6 C 93 % 1000,7 hPa 0,0 l/m 0 min 0 min 0 W/m 12,9 km/h (3 Bft) 97,87 %
21.02.2022 07:32 2,2 C 1,7 C -0,6 C 93 % 1000,8 hPa 0,0 l/m 0 min 0 min 0 W/m 12,9 km/h (3 Bft) 93,75 %
21.02.2022 07:34 2,2 C 1,7 C -0,6 C 93 % 1000,9 hPa 0,0 l/m 0 min 0 min 0 W/m 19,3 km/h (3 Bft) 95,65 %
21.02.2022 07:36 2,2 C 1,7 C -0,6 C 93 % 1000,9 hPa 0,0 l/m 0 min 0 min 0 W/m 16,1 km/h (3 Bft) 97,87 %
21.02.2022 07:38 2,3 C 1,7 C -0,6 C 93 % 1000,8 hPa 0,0 l/m 0 min 0 min 0 W/m 16,1 km/h (3 Bft) 97,87 %
21.02.2022 07:40 2,3 C 1,7 C -0,6 C 93 % 1000,7 hPa 0,0 l/m 0 min 0 min 0 W/m 22,5 km/h (4 Bft) 95,74 %
21.02.2022 07:42 2,3 C 1,7 C -0,6 C 93 % 1000,7 hPa 0,0 l/m 0 min 0 min 5 W/m 19,3 km/h (3 Bft) 97,87 %
21.02.2022 07:44 2,3 C 1,7 C -0,6 C 93 % 1000,6 hPa 0,0 l/m 0 min 0 min 5 W/m 19,3 km/h (3 Bft) 97,87 %
21.02.2022 07:46 2,2 C 1,7 C -0,6 C 93 % 1000,6 hPa 0,0 l/m 0 min 0 min 5 W/m 16,1 km/h (3 Bft) 53,33 %
21.02.2022 07:48 2,3 C 1,7 C -0,6 C 93 % 1000,6 hPa 0,0 l/m 0 min 0 min 7 W/m 19,3 km/h (3 Bft) 97,44 %
21.02.2022 07:50 2,3 C 1,7 C -0,6 C 93 % 1000,6 hPa 0,0 l/m 0 min 0 min 7 W/m 19,3 km/h (3 Bft) 97,87 %
21.02.2022 07:52 2,3 C 1,7 C -0,6 C 93 % 1000,6 hPa 0,0 l/m 0 min 0 min 9 W/m 22,5 km/h (4 Bft) 95,74 %
21.02.2022 07:54 2,3 C 1,7 C -0,6 C 93 % 1000,6 hPa 0,0 l/m 0 min 0 min 10 W/m 19,3 km/h (3 Bft) 97,87 %
21.02.2022 07:56 2,4 C 1,7 C -0,6 C 93 % 1000,7 hPa 0,0 l/m 0 min 0 min 17 W/m 19,3 km/h (3 Bft) 100,00 %
21.02.2022 07:58 2,4 C 2,2 C -0,6 C 93 % 1000,7 hPa 0,0 l/m 0 min 0 min 20 W/m 22,5 km/h (4 Bft) 100,00 %
21.02.2022 08:00 2,5 C 2,2 C -0,6 C 93 % 1000,7 hPa 0,0 l/m 0 min 0 min 18 W/m 22,5 km/h (4 Bft) 94,00 %
21.02.2022 08:02 2,6 C 2,2 C -0,6 C 93 % 1000,7 hPa 0,0 l/m 0 min 0 min 14 W/m 22,5 km/h (4 Bft) 100,00 %
21.02.2022 08:04 2,6 C 2,2 C -0,6 C 93 % 1000,7 hPa 0,0 l/m 0 min 0 min 12 W/m 25,7 km/h (4 Bft) 97,87 %
21.02.2022 08:06 2,7 C 2,2 C -0,6 C 92 % 1000,7 hPa 0,0 l/m 0 min 0 min 14 W/m 19,3 km/h (3 Bft) 97,87 %
21.02.2022 08:08 2,8 C 2,2 C -0,6 C 92 % 1000,7 hPa 0,0 l/m 0 min 0 min 18 W/m 22,5 km/h (4 Bft) 93,48 %
21.02.2022 08:10 2,8 C 2,8 C -0,6 C 92 % 1000,8 hPa 0,0 l/m 0 min 0 min 27 W/m 22,5 km/h (4 Bft) 93,62 %
21.02.2022 08:12 2,9 C 2,8 C -0,6 C 92 % 1000,8 hPa 0,0 l/m 0 min 0 min 27 W/m 12,9 km/h (3 Bft) 93,62 %
21.02.2022 08:14 2,9 C 2,8 C 0,0 C 92 % 1000,7 hPa 0,0 l/m 0 min 0 min 33 W/m 25,7 km/h (4 Bft) 97,87 %
21.02.2022 08:16 3,0 C 2,8 C 0,0 C 91 % 1000,7 hPa 0,0 l/m 0 min 0 min 31 W/m 22,5 km/h (4 Bft) 95,74 %
21.02.2022 08:18 3,1 C 2,8 C 0,0 C 91 % 1000,7 hPa 0,0 l/m 0 min 0 min 34 W/m 22,5 km/h (4 Bft) 95,74 %
21.02.2022 08:20 3,2 C 2,8 C 0,0 C 91 % 1000,7 hPa 0,0 l/m 0 min 0 min 26 W/m 19,3 km/h (3 Bft) 95,65 %
21.02.2022 08:22 3,2 C 2,8 C 0,0 C 91 % 1000,7 hPa 0,0 l/m 0 min 0 min 29 W/m 22,5 km/h (4 Bft) 91,49 %
21.02.2022 08:24 3,3 C 2,8 C 0,0 C 90 % 1000,7 hPa 0,0 l/m 0 min 0 min 30 W/m 32,2 km/h (5 Bft) 93,62 %
21.02.2022 08:26 3,3 C 3,3 C 0,0 C 90 % 1000,8 hPa 0,0 l/m 0 min 0 min 34 W/m 29,0 km/h (5 Bft) 95,74 %
21.02.2022 08:28 3,4 C 3,3 C 0,0 C 90 % 1000,7 hPa 0,0 l/m 0 min 0 min 38 W/m 19,3 km/h (3 Bft) 93,62 %
21.02.2022 08:30 3,5 C 3,3 C 0,0 C 90 % 1000,8 hPa 0,0 l/m 0 min 0 min 34 W/m 22,5 km/h (4 Bft) 95,74 %
21.02.2022 08:32 3,6 C 3,3 C 0,6 C 89 % 1000,7 hPa 0,0 l/m 0 min 0 min 40 W/m 16,1 km/h (3 Bft) 95,65 %
21.02.2022 08:34 3,6 C 3,3 C 0,6 C 89 % 1000,7 hPa 0,0 l/m 0 min 0 min 38 W/m 16,1 km/h (3 Bft) 95,74 %
21.02.2022 08:36 3,7 C 3,3 C 0,6 C 88 % 1000,6 hPa 0,0 l/m 0 min 0 min 46 W/m 32,2 km/h (5 Bft) 97,87 %
21.02.2022 08:38 3,7 C 3,3 C 0,6 C 88 % 1000,6 hPa 0,0 l/m 0 min 0 min 51 W/m 29,0 km/h (5 Bft) 95,74 %
21.02.2022 08:40 3,8 C 3,3 C 0,6 C 87 % 1000,7 hPa 0,0 l/m 0 min 0 min 66 W/m 16,1 km/h (3 Bft) 97,87 %
21.02.2022 08:42 3,8 C 3,3 C 0,6 C 87 % 1000,6 hPa 0,0 l/m 0 min 0 min 46 W/m 19,3 km/h (3 Bft) 97,83 %
21.02.2022 08:43 3,9 C 3,3 C 0,6 C 87 % 1000,6 hPa 0,0 l/m 0 min 0 min 44 W/m 19,3 km/h (3 Bft) 95,74 %
21.02.2022 08:46 3,9 C 3,3 C 0,6 C 87 % 1000,6 hPa 0,0 l/m 0 min 0 min 49 W/m 29,0 km/h (5 Bft) 97,87 %
21.02.2022 08:48 3,9 C 3,3 C 1,1 C 87 % 1000,7 hPa 0,0 l/m 0 min 0 min 47 W/m 16,1 km/h (3 Bft) 100,00 %
21.02.2022 08:50 3,9 C 3,3 C 1,1 C 86 % 1000,7 hPa 0,0 l/m 0 min 0 min 54 W/m 19,3 km/h (3 Bft) 100,00 %
21.02.2022 08:52 4,0 C 3,9 C 1,1 C 86 % 1000,7 hPa 0,0 l/m 0 min 0 min 59 W/m 35,4 km/h (5 Bft) 100,00 %
21.02.2022 08:54 4,1 C 3,9 C 1,1 C 86 % 1000,7 hPa 0,0 l/m 0 min 0 min 47 W/m 25,7 km/h (4 Bft) 100,00 %
21.02.2022 08:56 4,1 C 3,9 C 1,1 C 85 % 1000,7 hPa 0,0 l/m 0 min 0 min 48 W/m 45,1 km/h (6 Bft) 97,87 %
21.02.2022 08:58 4,1 C 3,9 C 1,1 C 85 % 1000,7 hPa 0,0 l/m 0 min 0 min 53 W/m 19,3 km/h (3 Bft) 100,00 %
21.02.2022 09:00 4,2 C 3,9 C 1,1 C 85 % 1000,7 hPa 0,0 l/m 0 min 0 min 80 W/m 32,2 km/h (5 Bft) 100,00 %
21.02.2022 09:02 4,2 C 4,4 C 1,1 C 85 % 1000,6 hPa 0,0 l/m 2 min 0 min 145 W/m 25,7 km/h (4 Bft) 100,00 %
21.02.2022 09:04 4,3 C 4,4 C 1,7 C 85 % 1000,6 hPa 0,0 l/m 0 min 0 min 85 W/m 25,7 km/h (4 Bft) 100,00 %
21.02.2022 09:06 4,3 C 4,4 C 1,7 C 84 % 1000,7 hPa 0,0 l/m 0 min 0 min 70 W/m 29,0 km/h (5 Bft) 100,00 %
21.02.2022 09:08 4,3 C 4,4 C 1,7 C 84 % 1000,7 hPa 0,0 l/m 0 min 0 min 67 W/m 41,8 km/h (6 Bft) 100,00 %
21.02.2022 09:10 4,4 C 5,0 C 1,7 C 83 % 1000,6 hPa 0,0 l/m 2 min 0 min 162 W/m 19,3 km/h (3 Bft) 100,00 %
21.02.2022 09:12 4,4 C 5,0 C 1,7 C 84 % 1000,7 hPa 0,0 l/m 2 min 0 min 149 W/m 19,3 km/h (3 Bft) 100,00 %
21.02.2022 09:14 4,6 C 5,6 C 1,7 C 84 % 1000,6 hPa 0,0 l/m 2 min 0 min 144 W/m 22,5 km/h (4 Bft) 100,00 %
21.02.2022 09:16 4,6 C 5,0 C 1,7 C 83 % 1000,6 hPa 0,0 l/m 0 min 0 min 100 W/m 25,7 km/h (4 Bft) 95,74 %
21.02.2022 09:18 4,7 C 5,0 C 1,7 C 83 % 1000,6 hPa 0,0 l/m 0 min 0 min 112 W/m 29,0 km/h (5 Bft) 100,00 %
21.02.2022 09:20 4,7 C 5,0 C 1,7 C 83 % 1000,7 hPa 0,0 l/m 2 min 0 min 144 W/m 32,2 km/h (5 Bft) 100,00 %
21.02.2022 09:22 4,7 C 5,6 C 1,7 C 82 % 1000,6 hPa 0,0 l/m 0 min 0 min 103 W/m 41,8 km/h (6 Bft) 100,00 %
21.02.2022 09:24 4,8 C 5,6 C 1,7 C 82 % 1000,7 hPa 0,0 l/m 0 min 0 min 88 W/m 19,3 km/h (3 Bft) 97,87 %
21.02.2022 09:26 4,8 C 5,0 C 1,7 C 82 % 1000,5 hPa 0,0 l/m 0 min 0 min 70 W/m 35,4 km/h (5 Bft) 100,00 %
21.02.2022 09:28 4,8 C 5,0 C 1,7 C 81 % 1000,6 hPa 0,0 l/m 0 min 0 min 74 W/m 41,8 km/h (6 Bft) 100,00 %
21.02.2022 09:30 4,8 C 5,0 C 1,7 C 81 % 1000,6 hPa 0,0 l/m 2 min 0 min 134 W/m 35,4 km/h (5 Bft) 100,00 %
21.02.2022 09:32 4,8 C 5,0 C 1,7 C 81 % 1000,6 hPa 0,0 l/m 0 min 0 min 102 W/m 29,0 km/h (5 Bft) 100,00 %
21.02.2022 09:34 4,8 C 5,6 C 1,7 C 81 % 1000,7 hPa 0,0 l/m 2 min 0 min 150 W/m 22,5 km/h (4 Bft) 100,00 %
21.02.2022 09:36 4,8 C 6,1 C 1,7 C 81 % 1000,6 hPa 0,0 l/m 2 min 0 min 145 W/m 22,5 km/h (4 Bft) 95,74 %
21.02.2022 09:38 4,9 C 6,1 C 1,7 C 81 % 1000,6 hPa 0,0 l/m 0 min 0 min 96 W/m 16,1 km/h (3 Bft) 100,00 %
21.02.2022 09:40 4,9 C 5,6 C 1,7 C 81 % 1000,7 hPa 0,0 l/m 0 min 0 min 121 W/m 35,4 km/h (5 Bft) 100,00 %
21.02.2022 09:42 4,9 C 5,6 C 1,7 C 81 % 1000,6 hPa 0,0 l/m 0 min 0 min 115 W/m 19,3 km/h (3 Bft) 100,00 %
21.02.2022 09:44 5,0 C 5,6 C 1,7 C 81 % 1000,6 hPa 0,0 l/m 0 min 0 min 74 W/m 38,6 km/h (5 Bft) 97,87 %
21.02.2022 09:46 5,0 C 5,6 C 1,7 C 81 % 1000,7 hPa 0,0 l/m 0 min 0 min 113 W/m 35,4 km/h (5 Bft) 100,00 %
21.02.2022 09:48 5,1 C 5,6 C 1,7 C 81 % 1000,6 hPa 0,0 l/m 0 min 0 min 135 W/m 19,3 km/h (3 Bft) 100,00 %
21.02.2022 09:50 5,1 C 5,6 C 1,7 C 80 % 1000,6 hPa 0,0 l/m 0 min 0 min 88 W/m 41,8 km/h (6 Bft) 100,00 %
21.02.2022 09:52 5,1 C 5,6 C 1,7 C 80 % 1000,6 hPa 0,0 l/m 0 min 0 min 136 W/m 48,3 km/h (6 Bft) 100,00 %
21.02.2022 09:54 5,2 C 5,6 C 1,7 C 80 % 1000,6 hPa 0,0 l/m 2 min 0 min 216 W/m 25,7 km/h (4 Bft) 97,83 %
21.02.2022 09:56 5,2 C 6,7 C 2,2 C 80 % 1000,7 hPa 0,0 l/m 2 min 0 min 230 W/m 25,7 km/h (4 Bft) 97,87 %
21.02.2022 09:58 5,3 C 6,7 C 2,2 C 80 % 1000,6 hPa 0,0 l/m 2 min 0 min 219 W/m 38,6 km/h (5 Bft) 97,87 %
21.02.2022 10:00 5,3 C 7,2 C 2,2 C 79 % 1000,6 hPa 0,0 l/m 2 min 0 min 210 W/m 41,8 km/h (6 Bft) 97,87 %
21.02.2022 10:02 5,4 C 7,2 C 2,2 C 79 % 1000,6 hPa 0,0 l/m 2 min 0 min 201 W/m 32,2 km/h (5 Bft) 97,87 %
21.02.2022 10:04 5,5 C 7,8 C 2,2 C 78 % 1000,5 hPa 0,0 l/m 0 min 0 min 142 W/m 29,0 km/h (5 Bft) 97,87 %
21.02.2022 10:06 5,6 C 7,2 C 2,2 C 79 % 1000,5 hPa 0,0 l/m 0 min 0 min 110 W/m 25,7 km/h (4 Bft) 97,83 %
21.02.2022 10:08 5,6 C 7,2 C 2,8 C 79 % 1000,5 hPa 0,0 l/m 2 min 0 min 260 W/m 57,9 km/h (7 Bft) 97,87 %
21.02.2022 10:10 5,7 C 7,2 C 2,8 C 78 % 1000,5 hPa 0,0 l/m 2 min 0 min 360 W/m 41,8 km/h (6 Bft) 95,74 %
21.02.2022 10:12 5,7 C 7,2 C 2,8 C 77 % 1000,4 hPa 0,0 l/m 2 min 0 min 293 W/m 38,6 km/h (5 Bft) 95,74 %
21.02.2022 10:14 5,8 C 6,7 C 2,8 C 77 % 1000,4 hPa 0,0 l/m 2 min 0 min 264 W/m 54,7 km/h (7 Bft) 93,62 %
21.02.2022 10:16 5,8 C 6,7 C 2,8 C 77 % 1000,3 hPa 0,0 l/m 2 min 0 min 222 W/m 48,3 km/h (6 Bft) 95,74 %
21.02.2022 10:18 5,8 C 6,1 C 2,8 C 77 % 1000,3 hPa 0,0 l/m 0 min 0 min 148 W/m 38,6 km/h (5 Bft) 95,74 %
21.02.2022 10:20 5,8 C 5,6 C 2,8 C 77 % 1000,3 hPa 0,0 l/m 0 min 0 min 130 W/m 32,2 km/h (5 Bft) 94,29 %
21.02.2022 10:22 5,7 C 5,6 C 2,8 C 77 % 1000,2 hPa 0,0 l/m 0 min 0 min 125 W/m 45,1 km/h (6 Bft) 95,74 %
21.02.2022 10:24 5,7 C 5,6 C 2,8 C 77 % 1000,2 hPa 0,0 l/m 0 min 0 min 122 W/m 35,4 km/h (5 Bft) 93,62 %
21.02.2022 10:26 5,7 C 5,6 C 2,2 C 77 % 1000,2 hPa 0,0 l/m 0 min 0 min 117 W/m 29,0 km/h (5 Bft) 95,74 %
21.02.2022 10:28 5,7 C 5,6 C 2,2 C 77 % 1000,1 hPa 0,0 l/m 0 min 0 min 112 W/m 29,0 km/h (5 Bft) 93,62 %
21.02.2022 10:30 5,7 C 5,6 C 2,2 C 77 % 1000,0 hPa 0,0 l/m 0 min 0 min 128 W/m 38,6 km/h (5 Bft) 95,74 %
21.02.2022 10:32 5,7 C 5,6 C 2,2 C 77 % 1000,0 hPa 0,0 l/m 0 min 0 min 129 W/m 35,4 km/h (5 Bft) 95,65 %
21.02.2022 10:34 5,7 C 5,6 C 2,2 C 77 % 999,9 hPa 0,0 l/m 0 min 0 min 133 W/m 25,7 km/h (4 Bft) 96,43 %
21.02.2022 10:36 5,7 C 5,6 C 2,2 C 77 % 1000,0 hPa 0,0 l/m 0 min 0 min 128 W/m 29,0 km/h (5 Bft) 96,00 %
21.02.2022 10:38 5,7 C 5,6 C 2,2 C 77 % 999,9 hPa 0,0 l/m 0 min 0 min 127 W/m 22,5 km/h (4 Bft) 97,87 %
21.02.2022 10:40 5,7 C 5,6 C 2,2 C 77 % 999,9 hPa 0,0 l/m 0 min 0 min 136 W/m 38,6 km/h (5 Bft) 95,74 %
21.02.2022 10:42 5,7 C 5,6 C 2,8 C 77 % 999,9 hPa 0,0 l/m 0 min 0 min 149 W/m 29,0 km/h (5 Bft) 97,14 %
21.02.2022 10:44 5,8 C 5,6 C 2,8 C 77 % 999,8 hPa 0,0 l/m 0 min 0 min 126 W/m 51,5 km/h (7 Bft) 96,36 %
21.02.2022 10:46 5,8 C 5,6 C 2,8 C 77 % 999,8 hPa 0,0 l/m 0 min 0 min 98 W/m 35,4 km/h (5 Bft) 96,00 %
21.02.2022 10:48 5,8 C 5,6 C 2,2 C 78 % 999,7 hPa 0,0 l/m 0 min 0 min 96 W/m 57,9 km/h (7 Bft) 97,14 %
21.02.2022 10:50 5,8 C 5,6 C 2,2 C 77 % 999,8 hPa 0,0 l/m 0 min 2 min 103 W/m 29,0 km/h (5 Bft) 96,43 %
21.02.2022 10:52 5,8 C 5,6 C 2,2 C 78 % 999,6 hPa 0,0 l/m 0 min 2 min 127 W/m 25,7 km/h (4 Bft) 100,00 %
21.02.2022 10:54 5,8 C 5,6 C 1,7 C 79 % 999,7 hPa 0,2 l/m 0 min 2 min 133 W/m 38,6 km/h (5 Bft) 100,00 %
21.02.2022 10:56 5,7 C 5,6 C 1,7 C 79 % 999,6 hPa 0,0 l/m 0 min 2 min 139 W/m 45,1 km/h (6 Bft) 61,11 %
21.02.2022 10:58 5,7 C 5,6 C 1,7 C 80 % 999,6 hPa 0,0 l/m 0 min 2 min 158 W/m 29,0 km/h (5 Bft) 100,00 %
21.02.2022 11:00 5,7 C 5,6 C 1,7 C 80 % 999,5 hPa 0,0 l/m 0 min 2 min 169 W/m 38,6 km/h (5 Bft) 100,00 %
21.02.2022 11:02 5,7 C 5,6 C 1,7 C 80 % 999,5 hPa 0,0 l/m 0 min 2 min 161 W/m 74,0 km/h (8 Bft) 98,00 %
21.02.2022 11:04 5,7 C 5,6 C 2,2 C 80 % 999,5 hPa 0,0 l/m 0 min 2 min 167 W/m 35,4 km/h (5 Bft) 100,00 %
21.02.2022 11:06 5,7 C 5,6 C 2,2 C 79 % 999,5 hPa 0,0 l/m 0 min 2 min 162 W/m 41,8 km/h (6 Bft) 97,87 %
21.02.2022 11:08 5,7 C 5,6 C 2,2 C 79 % 999,3 hPa 0,0 l/m 0 min 0 min 161 W/m 32,2 km/h (5 Bft) 98,11 %
21.02.2022 11:10 5,8 C 5,6 C 2,2 C 79 % 999,5 hPa 0,0 l/m 0 min 0 min 139 W/m 32,2 km/h (5 Bft) 97,87 %
21.02.2022 11:12 5,8 C 5,6 C 2,2 C 79 % 999,4 hPa 0,0 l/m 0 min 2 min 125 W/m 61,2 km/h (7 Bft) 97,37 %
21.02.2022 11:14 5,8 C 5,6 C 2,2 C 80 % 999,4 hPa 0,0 l/m 0 min 2 min 118 W/m 35,4 km/h (5 Bft) 98,00 %
21.02.2022 11:16 5,7 C 5,0 C 1,7 C 81 % 999,4 hPa 0,0 l/m 0 min 2 min 85 W/m 41,8 km/h (6 Bft) 98,08 %
21.02.2022 11:18 5,7 C 5,0 C 1,7 C 81 % 999,4 hPa 0,0 l/m 0 min 2 min 61 W/m 32,2 km/h (5 Bft) 97,37 %
21.02.2022 11:20 5,6 C 5,0 C 1,1 C 82 % 999,5 hPa 0,0 l/m 0 min 2 min 49 W/m 22,5 km/h (4 Bft) 96,00 %
21.02.2022 11:22 5,5 C 4,4 C 1,1 C 83 % 999,5 hPa 0,0 l/m 0 min 2 min 35 W/m 29,0 km/h (5 Bft) 97,87 %
21.02.2022 11:24 5,4 C 4,4 C 0,6 C 83 % 999,4 hPa 0,0 l/m 0 min 2 min 31 W/m 45,1 km/h (6 Bft) 97,73 %
21.02.2022 11:26 5,2 C 3,9 C 0,6 C 84 % 999,4 hPa 0,2 l/m 0 min 2 min 36 W/m 41,8 km/h (6 Bft) 98,00 %
21.02.2022 11:28 5,0 C 3,3 C 0,0 C 85 % 999,5 hPa 0,0 l/m 0 min 2 min 41 W/m 25,7 km/h (4 Bft) 97,83 %
21.02.2022 11:30 4,9 C 3,3 C 0,0 C 86 % 999,5 hPa 0,0 l/m 0 min 2 min 41 W/m 41,8 km/h (6 Bft) 97,73 %
21.02.2022 11:32 4,8 C 3,3 C 0,0 C 87 % 999,5 hPa 0,0 l/m 0 min 2 min 47 W/m 32,2 km/h (5 Bft) 98,00 %
21.02.2022 11:34 4,6 C 3,3 C 0,0 C 87 % 999,4 hPa 0,2 l/m 0 min 2 min 55 W/m 45,1 km/h (6 Bft) 98,00 %
21.02.2022 11:36 4,5 C 3,3 C 0,0 C 88 % 999,4 hPa 0,0 l/m 0 min 2 min 57 W/m 48,3 km/h (6 Bft) 97,14 %
21.02.2022 11:38 4,4 C 3,3 C 0,0 C 88 % 999,3 hPa 0,0 l/m 0 min 2 min 58 W/m 35,4 km/h (5 Bft) 98,11 %
21.02.2022 11:40 4,4 C 3,3 C 0,0 C 89 % 999,3 hPa 0,0 l/m 0 min 2 min 72 W/m 41,8 km/h (6 Bft) 97,83 %
21.02.2022 11:42 4,4 C 3,3 C 0,6 C 89 % 999,3 hPa 0,0 l/m 0 min 2 min 67 W/m 29,0 km/h (5 Bft) 96,00 %
21.02.2022 11:44 4,4 C 3,3 C 0,6 C 89 % 999,3 hPa 0,0 l/m 0 min 2 min 53 W/m 35,4 km/h (5 Bft) 97,87 %
21.02.2022 11:46 4,4 C 3,9 C 0,6 C 90 % 999,3 hPa 0,0 l/m 0 min 2 min 56 W/m 25,7 km/h (4 Bft) 95,74 %
21.02.2022 11:48 4,4 C 3,9 C 0,6 C 90 % 999,2 hPa 0,0 l/m 0 min 2 min 81 W/m 25,7 km/h (4 Bft) 97,87 %
21.02.2022 11:50 4,4 C 3,9 C 0,6 C 90 % 999,3 hPa 0,0 l/m 0 min 2 min 85 W/m 38,6 km/h (5 Bft) 97,83 %
21.02.2022 11:52 4,4 C 3,9 C 0,6 C 90 % 999,3 hPa 0,0 l/m 0 min 2 min 73 W/m 48,3 km/h (6 Bft) 97,87 %
21.02.2022 11:54 4,5 C 3,9 C 0,6 C 90 % 999,1 hPa 0,0 l/m 0 min 2 min 67 W/m 35,4 km/h (5 Bft) 97,87 %
21.02.2022 11:56 4,5 C 3,9 C 0,6 C 90 % 999,2 hPa 0,0 l/m 0 min 2 min 64 W/m 35,4 km/h (5 Bft) 93,62 %
21.02.2022 11:58 4,6 C 3,9 C 0,6 C 90 % 999,0 hPa 0,0 l/m 0 min 2 min 59 W/m 35,4 km/h (5 Bft) 97,87 %
21.02.2022 12:00 4,6 C 3,9 C 0,6 C 91 % 999,0 hPa 0,0 l/m 0 min 2 min 53 W/m 32,2 km/h (5 Bft) 95,74 %
21.02.2022 12:02 4,6 C 3,9 C 0,6 C 91 % 999,0 hPa 0,0 l/m 0 min 2 min 49 W/m 29,0 km/h (5 Bft) 55,32 %
21.02.2022 12:04 4,7 C 3,9 C 0,6 C 91 % 999,0 hPa 0,0 l/m 0 min 2 min 50 W/m 29,0 km/h (5 Bft) 93,10 %
21.02.2022 12:08 4,7 C 3,3 C 0,6 C 91 % 998,8 hPa 0,4 l/m 0 min 4 min 43 W/m 57,9 km/h (7 Bft) 97,87 %
21.02.2022 12:10 4,7 C 3,3 C 0,6 C 91 % 998,9 hPa 0,0 l/m 0 min 2 min 39 W/m 35,4 km/h (5 Bft) 97,87 %
21.02.2022 12:12 4,7 C 3,3 C 0,6 C 91 % 998,8 hPa 0,0 l/m 0 min 2 min 38 W/m 29,0 km/h (5 Bft) 95,74 %
21.02.2022 12:14 4,7 C 3,3 C 0,6 C 91 % 998,8 hPa 0,0 l/m 0 min 2 min 41 W/m 38,6 km/h (5 Bft) 97,83 %
21.02.2022 12:16 4,7 C 3,3 C 0,6 C 91 % 998,6 hPa 0,0 l/m 0 min 2 min 51 W/m 51,5 km/h (7 Bft) 97,87 %
21.02.2022 12:18 4,7 C 3,9 C 0,6 C 91 % 998,4 hPa 0,0 l/m 0 min 2 min 68 W/m 51,5 km/h (7 Bft) 97,87 %
21.02.2022 12:20 4,7 C 3,9 C 0,6 C 91 % 998,6 hPa 0,0 l/m 0 min 2 min 77 W/m 35,4 km/h (5 Bft) 95,74 %
21.02.2022 12:22 4,8 C 3,9 C 0,6 C 91 % 998,6 hPa 0,0 l/m 0 min 2 min 73 W/m 25,7 km/h (4 Bft) 95,74 %
21.02.2022 12:24 4,8 C 3,9 C 1,1 C 91 % 998,5 hPa 0,2 l/m 0 min 2 min 81 W/m 51,5 km/h (7 Bft) 97,87 %
21.02.2022 12:26 4,9 C 4,4 C 1,1 C 91 % 998,5 hPa 0,0 l/m 0 min 2 min 77 W/m 57,9 km/h (7 Bft) 97,83 %
21.02.2022 12:28 4,9 C 3,9 C 1,1 C 91 % 998,6 hPa 0,0 l/m 0 min 2 min 63 W/m 41,8 km/h (6 Bft) 100,00 %
21.02.2022 12:30 4,9 C 3,9 C 1,1 C 91 % 998,5 hPa 0,0 l/m 0 min 2 min 56 W/m 41,8 km/h (6 Bft) 100,00 %
21.02.2022 12:32 4,9 C 3,9 C 1,1 C 91 % 998,5 hPa 0,0 l/m 0 min 2 min 57 W/m 51,5 km/h (7 Bft) 100,00 %
21.02.2022 12:34 4,9 C 3,9 C 1,1 C 91 % 998,6 hPa 0,0 l/m 0 min 2 min 55 W/m 32,2 km/h (5 Bft) 100,00 %
21.02.2022 12:36 4,9 C 3,9 C 1,1 C 91 % 998,6 hPa 0,0 l/m 0 min 2 min 57 W/m 67,6 km/h (8 Bft) 97,87 %
21.02.2022 12:38 4,9 C 3,9 C 1,1 C 91 % 998,5 hPa 0,0 l/m 0 min 2 min 60 W/m 54,7 km/h (7 Bft) 100,00 %
21.02.2022 12:40 4,9 C 3,9 C 1,1 C 91 % 998,6 hPa 0,2 l/m 0 min 2 min 63 W/m 45,1 km/h (6 Bft) 100,00 %
21.02.2022 12:42 4,9 C 3,9 C 1,1 C 91 % 998,5 hPa 0,0 l/m 0 min 2 min 68 W/m 25,7 km/h (4 Bft) 100,00 %
21.02.2022 12:44 4,9 C 3,9 C 1,1 C 92 % 998,5 hPa 0,0 l/m 0 min 2 min 72 W/m 35,4 km/h (5 Bft) 100,00 %
21.02.2022 12:46 4,9 C 3,9 C 1,1 C 92 % 998,5 hPa 0,0 l/m 0 min 2 min 69 W/m 29,0 km/h (5 Bft) 100,00 %
21.02.2022 12:48 4,9 C 3,9 C 1,1 C 92 % 998,5 hPa 0,0 l/m 0 min 2 min 59 W/m 35,4 km/h (5 Bft) 100,00 %
21.02.2022 12:50 4,9 C 3,9 C 1,1 C 92 % 998,4 hPa 0,0 l/m 0 min 2 min 37 W/m 35,4 km/h (5 Bft) 100,00 %
21.02.2022 12:52 4,8 C 3,9 C 1,1 C 92 % 998,5 hPa 0,0 l/m 0 min 2 min 47 W/m 29,0 km/h (5 Bft) 100,00 %
21.02.2022 12:54 4,8 C 3,9 C 1,1 C 92 % 998,3 hPa 0,0 l/m 0 min 2 min 59 W/m 57,9 km/h (7 Bft) 100,00 %
21.02.2022 12:56 4,8 C 3,9 C 1,1 C 92 % 998,4 hPa 0,2 l/m 0 min 2 min 71 W/m 25,7 km/h (4 Bft) 100,00 %
21.02.2022 12:58 4,9 C 3,9 C 1,1 C 92 % 998,4 hPa 0,0 l/m 0 min 2 min 92 W/m 48,3 km/h (6 Bft) 100,00 %
21.02.2022 13:00 4,9 C 4,4 C 1,1 C 93 % 998,4 hPa 0,0 l/m 0 min 2 min 109 W/m 25,7 km/h (4 Bft) 100,00 %
21.02.2022 13:02 4,9 C 4,4 C 1,1 C 93 % 998,4 hPa 0,0 l/m 0 min 2 min 83 W/m 38,6 km/h (5 Bft) 97,83 %
21.02.2022 13:04 4,9 C 4,4 C 1,1 C 93 % 998,3 hPa 0,0 l/m 0 min 2 min 106 W/m 29,0 km/h (5 Bft) 97,87 %
21.02.2022 13:06 5,0 C 4,4 C 1,1 C 93 % 998,2 hPa 0,0 l/m 0 min 2 min 138 W/m 29,0 km/h (5 Bft) 97,87 %
21.02.2022 13:08 5,1 C 4,4 C 1,7 C 93 % 998,4 hPa 0,0 l/m 0 min 2 min 100 W/m 25,7 km/h (4 Bft) 97,87 %
21.02.2022 13:10 5,1 C 4,4 C 1,1 C 93 % 998,2 hPa 0,0 l/m 0 min 2 min 65 W/m 32,2 km/h (5 Bft) 97,87 %
21.02.2022 13:12 5,1 C 4,4 C 1,1 C 93 % 998,3 hPa 0,0 l/m 0 min 2 min 57 W/m 22,5 km/h (4 Bft) 97,83 %
21.02.2022 13:14 5,1 C 4,4 C 1,1 C 93 % 998,2 hPa 0,0 l/m 0 min 2 min 51 W/m 45,1 km/h (6 Bft) 97,87 %
21.02.2022 13:16 5,1 C 4,4 C 1,1 C 93 % 998,1 hPa 0,0 l/m 0 min 2 min 53 W/m 38,6 km/h (5 Bft) 97,87 %
21.02.2022 13:18 5,1 C 4,4 C 1,7 C 93 % 998,1 hPa 0,0 l/m 0 min 2 min 72 W/m 29,0 km/h (5 Bft) 95,74 %
21.02.2022 13:20 5,2 C 4,4 C 1,7 C 93 % 998,1 hPa 0,0 l/m 0 min 2 min 82 W/m 29,0 km/h (5 Bft) 97,87 %
21.02.2022 13:22 5,2 C 4,4 C 1,7 C 93 % 998,1 hPa 0,0 l/m 0 min 2 min 83 W/m 25,7 km/h (4 Bft) 97,87 %
21.02.2022 13:24 5,2 C 4,4 C 1,7 C 93 % 998,0 hPa 0,0 l/m 0 min 2 min 73 W/m 45,1 km/h (6 Bft) 97,83 %
21.02.2022 13:26 5,2 C 4,4 C 1,7 C 93 % 998,0 hPa 0,0 l/m 0 min 2 min 47 W/m 51,5 km/h (7 Bft) 97,87 %
21.02.2022 13:28 5,2 C 4,4 C 1,7 C 93 % 998,0 hPa 0,0 l/m 0 min 2 min 44 W/m 32,2 km/h (5 Bft) 97,87 %
21.02.2022 13:30 5,2 C 4,4 C 1,7 C 93 % 998,0 hPa 0,2 l/m 0 min 2 min 42 W/m 32,2 km/h (5 Bft) 97,87 %
21.02.2022 13:32 5,2 C 4,4 C 1,7 C 93 % 998,0 hPa 0,0 l/m 0 min 2 min 66 W/m 48,3 km/h (6 Bft) 95,74 %
21.02.2022 13:34 5,2 C 4,4 C 1,7 C 93 % 998,1 hPa 0,0 l/m 0 min 2 min 90 W/m 38,6 km/h (5 Bft) 95,74 %
21.02.2022 13:36 5,2 C 4,4 C 1,7 C 93 % 998,0 hPa 0,0 l/m 0 min 2 min 102 W/m 32,2 km/h (5 Bft) 95,65 %
21.02.2022 13:38 5,2 C 4,4 C 1,7 C 93 % 997,9 hPa 0,0 l/m 0 min 2 min 117 W/m 32,2 km/h (5 Bft) 97,87 %
21.02.2022 13:40 5,2 C 4,4 C 1,7 C 94 % 998,0 hPa 0,0 l/m 0 min 2 min 122 W/m 25,7 km/h (4 Bft) 95,74 %
21.02.2022 13:42 5,3 C 4,4 C 1,7 C 94 % 998,1 hPa 0,2 l/m 0 min 2 min 96 W/m 32,2 km/h (5 Bft) 95,74 %
21.02.2022 13:44 5,3 C 4,4 C 1,7 C 94 % 998,1 hPa 0,0 l/m 0 min 0 min 84 W/m 32,2 km/h (5 Bft) 97,87 %
21.02.2022 13:46 5,3 C 4,4 C 1,7 C 94 % 998,1 hPa 0,0 l/m 0 min 0 min 94 W/m 22,5 km/h (4 Bft) 97,87 %
21.02.2022 13:48 5,3 C 4,4 C 1,7 C 94 % 998,1 hPa 0,0 l/m 0 min 2 min 110 W/m 35,4 km/h (5 Bft) 95,65 %
21.02.2022 13:50 5,3 C 4,4 C 1,7 C 94 % 998,0 hPa 0,0 l/m 0 min 2 min 122 W/m 29,0 km/h (5 Bft) 95,74 %
21.02.2022 13:52 5,4 C 5,0 C 1,7 C 94 % 998,0 hPa 0,0 l/m 0 min 2 min 134 W/m 32,2 km/h (5 Bft) 93,62 %
21.02.2022 13:54 5,4 C 5,0 C 1,7 C 94 % 998,1 hPa 0,0 l/m 0 min 2 min 80 W/m 38,6 km/h (5 Bft) 95,74 %
21.02.2022 13:56 5,4 C 4,4 C 1,7 C 94 % 998,1 hPa 0,0 l/m 0 min 2 min 38 W/m 32,2 km/h (5 Bft) 93,62 %
21.02.2022 13:58 5,4 C 4,4 C 1,7 C 94 % 997,8 hPa 0,2 l/m 0 min 2 min 35 W/m 22,5 km/h (4 Bft) 95,74 %
21.02.2022 14:00 5,4 C 4,4 C 1,7 C 94 % 997,9 hPa 0,0 l/m 0 min 2 min 53 W/m 29,0 km/h (5 Bft) 95,65 %
21.02.2022 14:02 5,4 C 4,4 C 1,7 C 94 % 997,9 hPa 0,0 l/m 0 min 2 min 72 W/m 35,4 km/h (5 Bft) 93,62 %
21.02.2022 14:04 5,4 C 4,4 C 1,7 C 94 % 998,0 hPa 0,2 l/m 0 min 2 min 90 W/m 35,4 km/h (5 Bft) 95,74 %
21.02.2022 14:06 5,4 C 4,4 C 1,7 C 94 % 998,0 hPa 0,0 l/m 0 min 2 min 92 W/m 41,8 km/h (6 Bft) 95,74 %
21.02.2022 14:08 5,4 C 4,4 C 2,2 C 94 % 998,0 hPa 0,0 l/m 0 min 2 min 65 W/m 29,0 km/h (5 Bft) 95,74 %
21.02.2022 14:10 5,4 C 4,4 C 2,2 C 94 % 998,0 hPa 0,0 l/m 0 min 0 min 56 W/m 19,3 km/h (3 Bft) 95,74 %
21.02.2022 14:12 5,4 C 4,4 C 2,2 C 94 % 998,0 hPa 0,0 l/m 0 min 2 min 66 W/m 25,7 km/h (4 Bft) 95,65 %
21.02.2022 14:14 5,4 C 4,4 C 2,2 C 94 % 998,0 hPa 0,2 l/m 0 min 2 min 80 W/m 29,0 km/h (5 Bft) 95,74 %
21.02.2022 14:16 5,5 C 4,4 C 2,2 C 94 % 998,0 hPa 0,0 l/m 0 min 2 min 85 W/m 29,0 km/h (5 Bft) 93,62 %
21.02.2022 14:18 5,5 C 4,4 C 2,2 C 94 % 998,0 hPa 0,0 l/m 0 min 2 min 74 W/m 25,7 km/h (4 Bft) 95,74 %
21.02.2022 14:20 5,5 C 4,4 C 2,2 C 95 % 998,0 hPa 0,0 l/m 0 min 2 min 72 W/m 32,2 km/h (5 Bft) 95,74 %
21.02.2022 14:22 5,6 C 4,4 C 2,2 C 94 % 998,0 hPa 0,0 l/m 0 min 2 min 80 W/m 22,5 km/h (4 Bft) 91,49 %
21.02.2022 14:24 5,6 C 4,4 C 2,2 C 95 % 998,0 hPa 0,2 l/m 0 min 2 min 95 W/m 19,3 km/h (3 Bft) 95,65 %
21.02.2022 14:26 5,6 C 4,4 C 2,2 C 95 % 997,9 hPa 0,0 l/m 0 min 2 min 97 W/m 29,0 km/h (5 Bft) 97,87 %
21.02.2022 14:28 5,7 C 4,4 C 2,2 C 95 % 998,0 hPa 0,0 l/m 0 min 2 min 77 W/m 35,4 km/h (5 Bft) 97,87 %
21.02.2022 14:30 5,7 C 4,4 C 2,2 C 95 % 998,0 hPa 0,0 l/m 0 min 2 min 53 W/m 35,4 km/h (5 Bft) 97,87 %
21.02.2022 14:32 5,7 C 5,0 C 2,2 C 95 % 997,8 hPa 0,0 l/m 0 min 2 min 68 W/m 22,5 km/h (4 Bft) 97,87 %
21.02.2022 14:34 5,7 C 5,0 C 2,2 C 95 % 998,0 hPa 0,2 l/m 0 min 2 min 62 W/m 35,4 km/h (5 Bft) 95,74 %
21.02.2022 14:36 5,8 C 5,0 C 2,2 C 95 % 997,9 hPa 0,0 l/m 0 min 2 min 39 W/m 22,5 km/h (4 Bft) 97,83 %
21.02.2022 14:38 5,8 C 5,0 C 2,2 C 95 % 997,9 hPa 0,0 l/m 0 min 2 min 33 W/m 25,7 km/h (4 Bft) 100,00 %
21.02.2022 14:40 5,8 C 5,0 C 2,2 C 95 % 997,9 hPa 0,0 l/m 0 min 2 min 42 W/m 25,7 km/h (4 Bft) 100,00 %
21.02.2022 14:42 5,8 C 5,0 C 2,2 C 95 % 997,7 hPa 0,0 l/m 0 min 2 min 58 W/m 25,7 km/h (4 Bft) 100,00 %
21.02.2022 14:44 5,9 C 5,0 C 2,2 C 95 % 997,8 hPa 0,0 l/m 0 min 0 min 57 W/m 22,5 km/h (4 Bft) 100,00 %
21.02.2022 14:46 5,9 C 5,0 C 2,2 C 95 % 997,9 hPa 0,0 l/m 0 min 2 min 57 W/m 19,3 km/h (3 Bft) 97,83 %
21.02.2022 14:48 5,9 C 5,0 C 2,8 C 95 % 998,0 hPa 0,0 l/m 0 min 2 min 85 W/m 29,0 km/h (5 Bft) 100,00 %
21.02.2022 14:50 6,0 C 5,6 C 2,8 C 95 % 997,9 hPa 0,0 l/m 0 min 2 min 83 W/m 29,0 km/h (5 Bft) 100,00 %
21.02.2022 14:52 6,0 C 5,0 C 2,8 C 95 % 998,1 hPa 0,0 l/m 0 min 2 min 57 W/m 25,7 km/h (4 Bft) 100,00 %
21.02.2022 14:54 6,1 C 5,0 C 2,8 C 95 % 998,1 hPa 0,2 l/m 0 min 2 min 51 W/m 32,2 km/h (5 Bft) 97,87 %
21.02.2022 14:56 6,1 C 5,0 C 2,8 C 95 % 998,1 hPa 0,0 l/m 0 min 2 min 35 W/m 25,7 km/h (4 Bft) 100,00 %
21.02.2022 14:58 6,1 C 5,0 C 2,8 C 95 % 998,1 hPa 0,0 l/m 0 min 2 min 27 W/m 19,3 km/h (3 Bft) 97,83 %
21.02.2022 15:00 6,1 C 5,0 C 2,8 C 95 % 998,2 hPa 0,2 l/m 0 min 2 min 34 W/m 29,0 km/h (5 Bft) 97,87 %
21.02.2022 15:02 6,1 C 5,0 C 2,8 C 95 % 998,2 hPa 0,0 l/m 0 min 2 min 32 W/m 35,4 km/h (5 Bft) 100,00 %
21.02.2022 15:04 6,1 C 5,0 C 2,8 C 95 % 998,4 hPa 0,0 l/m 0 min 2 min 42 W/m 25,7 km/h (4 Bft) 100,00 %
21.02.2022 15:06 6,2 C 5,0 C 2,8 C 95 % 998,3 hPa 0,0 l/m 0 min 0 min 46 W/m 25,7 km/h (4 Bft) 100,00 %
21.02.2022 15:08 6,2 C 5,0 C 2,8 C 95 % 998,4 hPa 0,2 l/m 0 min 2 min 40 W/m 32,2 km/h (5 Bft) 100,00 %
21.02.2022 15:10 6,3 C 5,6 C 2,8 C 95 % 998,5 hPa 0,0 l/m 0 min 2 min 40 W/m 35,4 km/h (5 Bft) 97,83 %
21.02.2022 15:12 6,3 C 5,6 C 2,8 C 95 % 998,6 hPa 0,0 l/m 0 min 2 min 44 W/m 22,5 km/h (4 Bft) 100,00 %
21.02.2022 15:14 6,4 C 5,6 C 2,8 C 95 % 998,8 hPa 0,0 l/m 0 min 2 min 62 W/m 32,2 km/h (5 Bft) 100,00 %
21.02.2022 15:16 6,4 C 5,6 C 2,8 C 95 % 998,8 hPa 0,0 l/m 0 min 2 min 47 W/m 32,2 km/h (5 Bft) 100,00 %
21.02.2022 15:18 6,5 C 5,6 C 2,8 C 95 % 998,9 hPa 0,0 l/m 0 min 2 min 45 W/m 22,5 km/h (4 Bft) 100,00 %
21.02.2022 15:20 6,5 C 5,6 C 3,3 C 95 % 998,8 hPa 0,0 l/m 0 min 0 min 59 W/m 19,3 km/h (3 Bft) 100,00 %
21.02.2022 15:22 6,5 C 6,1 C 3,3 C 95 % 999,0 hPa 0,0 l/m 0 min 0 min 63 W/m 35,4 km/h (5 Bft) 100,00 %
21.02.2022 15:24 6,6 C 6,1 C 3,3 C 95 % 999,1 hPa 0,2 l/m 0 min 0 min 85 W/m 57,9 km/h (7 Bft) 100,00 %
21.02.2022 15:26 6,6 C 6,1 C 3,3 C 95 % 999,1 hPa 0,0 l/m 0 min 2 min 124 W/m 38,6 km/h (5 Bft) 100,00 %
21.02.2022 15:28 6,7 C 6,1 C 3,3 C 94 % 999,3 hPa 0,0 l/m 0 min 0 min 141 W/m 41,8 km/h (6 Bft) 100,00 %
21.02.2022 15:30 6,8 C 6,7 C 3,3 C 94 % 999,2 hPa 0,0 l/m 0 min 2 min 123 W/m 35,4 km/h (5 Bft) 100,00 %
21.02.2022 15:32 6,8 C 6,1 C 3,3 C 94 % 999,3 hPa 0,0 l/m 0 min 2 min 97 W/m 41,8 km/h (6 Bft) 100,00 %
21.02.2022 15:34 6,8 C 6,1 C 3,3 C 94 % 999,4 hPa 0,0 l/m 0 min 2 min 73 W/m 25,7 km/h (4 Bft) 97,87 %
21.02.2022 15:36 6,9 C 6,1 C 3,3 C 93 % 999,6 hPa 0,0 l/m 0 min 2 min 60 W/m 22,5 km/h (4 Bft) 100,00 %
21.02.2022 15:38 6,9 C 6,1 C 3,3 C 93 % 999,7 hPa 0,0 l/m 0 min 2 min 58 W/m 48,3 km/h (6 Bft) 100,00 %
21.02.2022 15:40 6,8 C 6,1 C 3,3 C 93 % 999,8 hPa 0,0 l/m 0 min 2 min 50 W/m 38,6 km/h (5 Bft) 100,00 %
21.02.2022 15:42 6,8 C 6,1 C 3,3 C 93 % 999,8 hPa 0,0 l/m 0 min 2 min 39 W/m 38,6 km/h (5 Bft) 97,87 %
21.02.2022 15:44 6,7 C 5,6 C 3,3 C 93 % 1000,0 hPa 0,0 l/m 0 min 2 min 34 W/m 29,0 km/h (5 Bft) 100,00 %
21.02.2022 15:46 6,6 C 5,6 C 3,3 C 93 % 1000,1 hPa 0,0 l/m 0 min 2 min 37 W/m 35,4 km/h (5 Bft) 97,22 %
21.02.2022 15:48 6,6 C 5,6 C 3,3 C 93 % 1000,2 hPa 0,2 l/m 0 min 2 min 41 W/m 38,6 km/h (5 Bft) 94,55 %
21.02.2022 15:50 6,5 C 5,6 C 3,3 C 93 % 1000,2 hPa 0,0 l/m 0 min 2 min 51 W/m 25,7 km/h (4 Bft) 97,87 %
21.02.2022 15:52 6,5 C 5,6 C 3,3 C 94 % 1000,2 hPa 0,0 l/m 0 min 2 min 56 W/m 35,4 km/h (5 Bft) 96,00 %
21.02.2022 15:54 6,5 C 6,1 C 3,3 C 94 % 1000,3 hPa 0,0 l/m 0 min 2 min 79 W/m 32,2 km/h (5 Bft) 97,87 %
21.02.2022 15:56 6,5 C 6,1 C 2,8 C 93 % 1000,3 hPa 0,0 l/m 0 min 2 min 82 W/m 41,8 km/h (6 Bft) 97,83 %
21.02.2022 15:58 6,6 C 6,1 C 3,3 C 94 % 1000,4 hPa 0,0 l/m 0 min 0 min 74 W/m 38,6 km/h (5 Bft) 100,00 %
21.02.2022 16:00 6,6 C 6,1 C 2,8 C 93 % 1000,6 hPa 0,0 l/m 0 min 0 min 64 W/m 29,0 km/h (5 Bft) 97,87 %
21.02.2022 16:02 6,6 C 6,1 C 2,8 C 93 % 1000,7 hPa 0,0 l/m 0 min 0 min 57 W/m 25,7 km/h (4 Bft) 96,00 %
21.02.2022 16:04 6,6 C 6,1 C 2,8 C 93 % 1000,8 hPa 0,0 l/m 0 min 0 min 69 W/m 38,6 km/h (5 Bft) 95,74 %
21.02.2022 16:06 6,6 C 6,1 C 2,8 C 93 % 1000,8 hPa 0,0 l/m 0 min 0 min 59 W/m 38,6 km/h (5 Bft) 96,00 %
21.02.2022 16:08 6,7 C 6,1 C 2,8 C 93 % 1000,9 hPa 0,0 l/m 0 min 0 min 59 W/m 38,6 km/h (5 Bft) 95,92 %
21.02.2022 16:10 6,7 C 6,1 C 2,8 C 92 % 1001,0 hPa 0,0 l/m 0 min 0 min 60 W/m 45,1 km/h (6 Bft) 94,29 %
21.02.2022 16:12 6,8 C 6,1 C 2,8 C 92 % 1001,1 hPa 0,0 l/m 0 min 0 min 70 W/m 38,6 km/h (5 Bft) 94,34 %
21.02.2022 16:14 6,8 C 6,1 C 2,8 C 91 % 1001,2 hPa 0,0 l/m 0 min 0 min 63 W/m 38,6 km/h (5 Bft) 96,00 %
21.02.2022 16:16 6,8 C 6,1 C 2,8 C 91 % 1001,3 hPa 0,0 l/m 0 min 0 min 52 W/m 48,3 km/h (6 Bft) 95,74 %
21.02.2022 16:18 6,8 C 6,1 C 2,8 C 91 % 1001,5 hPa 0,0 l/m 0 min 0 min 59 W/m 32,2 km/h (5 Bft) 93,88 %
21.02.2022 16:20 6,8 C 6,7 C 2,8 C 90 % 1001,5 hPa 0,0 l/m 0 min 0 min 87 W/m 32,2 km/h (5 Bft) 97,22 %
21.02.2022 16:22 6,9 C 6,7 C 3,3 C 90 % 1001,6 hPa 0,0 l/m 0 min 0 min 108 W/m 35,4 km/h (5 Bft) 97,83 %
21.02.2022 16:24 7,0 C 6,7 C 3,3 C 90 % 1001,6 hPa 0,0 l/m 2 min 0 min 120 W/m 29,0 km/h (5 Bft) 98,11 %
21.02.2022 16:26 7,0 C 6,7 C 3,3 C 90 % 1001,7 hPa 0,0 l/m 0 min 0 min 98 W/m 29,0 km/h (5 Bft) 98,00 %
21.02.2022 16:28 7,0 C 6,7 C 3,3 C 90 % 1001,8 hPa 0,0 l/m 0 min 0 min 71 W/m 45,1 km/h (6 Bft) 94,00 %
21.02.2022 16:30 7,0 C 6,7 C 2,8 C 90 % 1001,9 hPa 0,0 l/m 0 min 0 min 46 W/m 25,7 km/h (4 Bft) 100,00 %
21.02.2022 16:32 7,0 C 6,7 C 2,8 C 89 % 1002,0 hPa 0,0 l/m 0 min 0 min 37 W/m 51,5 km/h (7 Bft) 90,57 %
21.02.2022 16:34 7,1 C 6,7 C 2,8 C 89 % 1002,1 hPa 0,0 l/m 0 min 0 min 29 W/m 35,4 km/h (5 Bft) 95,74 %
21.02.2022 16:36 7,1 C 6,7 C 2,8 C 89 % 1002,3 hPa 0,0 l/m 0 min 0 min 35 W/m 35,4 km/h (5 Bft) 96,00 %
21.02.2022 16:38 7,0 C 6,7 C 2,8 C 89 % 1002,3 hPa 0,0 l/m 0 min 0 min 48 W/m 25,7 km/h (4 Bft) 95,92 %
21.02.2022 16:40 7,0 C 6,7 C 2,8 C 89 % 1002,5 hPa 0,0 l/m 0 min 0 min 45 W/m 35,4 km/h (5 Bft) 93,62 %
21.02.2022 16:42 7,0 C 6,7 C 2,8 C 89 % 1002,6 hPa 0,0 l/m 0 min 0 min 55 W/m 29,0 km/h (5 Bft) 95,65 %
21.02.2022 16:44 7,0 C 6,7 C 2,8 C 89 % 1002,6 hPa 0,0 l/m 0 min 0 min 70 W/m 32,2 km/h (5 Bft) 93,62 %
21.02.2022 16:46 7,1 C 6,7 C 2,8 C 89 % 1002,8 hPa 0,0 l/m 0 min 0 min 53 W/m 32,2 km/h (5 Bft) 95,74 %
21.02.2022 16:48 7,1 C 6,7 C 2,8 C 89 % 1002,8 hPa 0,0 l/m 0 min 0 min 35 W/m 25,7 km/h (4 Bft) 97,87 %
21.02.2022 16:50 7,1 C 6,7 C 2,8 C 88 % 1003,0 hPa 0,0 l/m 0 min 0 min 26 W/m 25,7 km/h (4 Bft) 95,74 %
21.02.2022 16:52 7,1 C 6,7 C 2,8 C 88 % 1003,1 hPa 0,0 l/m 0 min 0 min 28 W/m 25,7 km/h (4 Bft) 93,62 %
21.02.2022 16:54 7,1 C 6,7 C 2,8 C 88 % 1003,1 hPa 0,0 l/m 0 min 0 min 31 W/m 25,7 km/h (4 Bft) 95,65 %
21.02.2022 16:56 7,1 C 6,7 C 2,8 C 88 % 1003,5 hPa 0,0 l/m 0 min 0 min 25 W/m 35,4 km/h (5 Bft) 95,74 %
21.02.2022 16:58 7,1 C 6,7 C 2,8 C 88 % 1003,5 hPa 0,0 l/m 0 min 0 min 25 W/m 32,2 km/h (5 Bft) 97,87 %
21.02.2022 17:00 7,1 C 6,7 C 2,8 C 87 % 1003,6 hPa 0,0 l/m 0 min 0 min 24 W/m 41,8 km/h (6 Bft) 97,87 %
21.02.2022 17:02 7,1 C 6,7 C 2,8 C 87 % 1003,7 hPa 0,0 l/m 0 min 0 min 26 W/m 41,8 km/h (6 Bft) 97,87 %
21.02.2022 17:04 7,1 C 6,7 C 2,8 C 87 % 1003,8 hPa 0,0 l/m 0 min 0 min 25 W/m 22,5 km/h (4 Bft) 97,87 %
21.02.2022 17:06 7,1 C 6,7 C 2,8 C 87 % 1003,9 hPa 0,0 l/m 0 min 0 min 26 W/m 32,2 km/h (5 Bft) 97,83 %
21.02.2022 17:08 7,1 C 6,7 C 2,8 C 86 % 1004,0 hPa 0,0 l/m 0 min 0 min 30 W/m 32,2 km/h (5 Bft) 97,87 %
21.02.2022 17:10 7,1 C 6,7 C 2,8 C 86 % 1004,1 hPa 0,0 l/m 0 min 0 min 33 W/m 41,8 km/h (6 Bft) 95,74 %
21.02.2022 17:12 7,2 C 6,7 C 2,8 C 86 % 1004,2 hPa 0,0 l/m 0 min 0 min 36 W/m 35,4 km/h (5 Bft) 100,00 %
21.02.2022 17:14 7,1 C 6,7 C 2,8 C 86 % 1004,4 hPa 0,0 l/m 0 min 0 min 42 W/m 35,4 km/h (5 Bft) 100,00 %
21.02.2022 17:16 7,2 C 6,7 C 2,8 C 86 % 1004,4 hPa 0,0 l/m 0 min 0 min 38 W/m 22,5 km/h (4 Bft) 97,87 %
21.02.2022 17:18 7,2 C 6,7 C 2,8 C 86 % 1004,5 hPa 0,0 l/m 0 min 0 min 33 W/m 22,5 km/h (4 Bft) 100,00 %
21.02.2022 17:20 7,1 C 6,7 C 2,8 C 86 % 1004,7 hPa 0,0 l/m 0 min 0 min 29 W/m 25,7 km/h (4 Bft) 95,74 %
21.02.2022 17:22 7,1 C 6,7 C 2,8 C 86 % 1005,0 hPa 0,0 l/m 0 min 0 min 26 W/m 35,4 km/h (5 Bft) 97,87 %
21.02.2022 17:24 7,1 C 6,7 C 2,8 C 86 % 1004,8 hPa 0,0 l/m 0 min 0 min 18 W/m 25,7 km/h (4 Bft) 97,87 %
21.02.2022 17:26 7,1 C 6,1 C 2,8 C 86 % 1004,9 hPa 0,0 l/m 0 min 0 min 12 W/m 22,5 km/h (4 Bft) 100,00 %
21.02.2022 17:28 7,0 C 6,1 C 2,8 C 86 % 1004,9 hPa 0,0 l/m 0 min 0 min 18 W/m 35,4 km/h (5 Bft) 100,00 %
21.02.2022 17:30 7,0 C 6,7 C 2,8 C 86 % 1005,0 hPa 0,0 l/m 0 min 0 min 19 W/m 32,2 km/h (5 Bft) 97,87 %
21.02.2022 17:32 7,0 C 6,7 C 2,8 C 86 % 1005,0 hPa 0,0 l/m 0 min 0 min 14 W/m 32,2 km/h (5 Bft) 97,87 %
21.02.2022 17:34 7,0 C 6,1 C 2,8 C 86 % 1005,2 hPa 0,0 l/m 0 min 0 min 15 W/m 19,3 km/h (3 Bft) 97,87 %
21.02.2022 17:36 7,0 C 6,1 C 2,8 C 86 % 1005,2 hPa 0,0 l/m 0 min 0 min 14 W/m 38,6 km/h (5 Bft) 97,87 %
21.02.2022 17:38 7,0 C 6,1 C 2,2 C 86 % 1005,3 hPa 0,0 l/m 0 min 0 min 14 W/m 32,2 km/h (5 Bft) 97,87 %
21.02.2022 17:40 6,9 C 6,1 C 2,2 C 85 % 1005,5 hPa 0,0 l/m 0 min 0 min 12 W/m 25,7 km/h (4 Bft) 97,92 %
21.02.2022 17:42 6,9 C 6,1 C 2,2 C 85 % 1005,5 hPa 0,0 l/m 0 min 0 min 12 W/m 45,1 km/h (6 Bft) 100,00 %
21.02.2022 17:44 6,9 C 6,1 C 2,2 C 84 % 1005,7 hPa 0,0 l/m 0 min 0 min 13 W/m 51,5 km/h (7 Bft) 94,29 %
21.02.2022 17:46 6,9 C 6,1 C 2,2 C 84 % 1005,9 hPa 0,0 l/m 0 min 0 min 15 W/m 32,2 km/h (5 Bft) 98,31 %
21.02.2022 17:48 6,9 C 6,1 C 2,2 C 83 % 1006,0 hPa 0,0 l/m 0 min 0 min 12 W/m 45,1 km/h (6 Bft) 97,87 %
21.02.2022 17:50 6,9 C 6,1 C 2,2 C 84 % 1006,1 hPa 0,0 l/m 0 min 0 min 8 W/m 41,8 km/h (6 Bft) 97,83 %
21.02.2022 17:52 6,9 C 6,1 C 2,8 C 83 % 1006,2 hPa 0,0 l/m 0 min 0 min 6 W/m 29,0 km/h (5 Bft) 95,74 %
21.02.2022 17:54 6,9 C 6,1 C 2,8 C 83 % 1006,3 hPa 0,0 l/m 0 min 0 min 5 W/m 35,4 km/h (5 Bft) 97,87 %
21.02.2022 17:56 6,8 C 6,1 C 3,3 C 83 % 1006,4 hPa 0,0 l/m 0 min 0 min 2 W/m 32,2 km/h (5 Bft) 94,87 %
21.02.2022 17:58 6,8 C 6,1 C 3,3 C 83 % 1006,5 hPa 0,0 l/m 0 min 0 min 0 W/m 41,8 km/h (6 Bft) 98,00 %
21.02.2022 18:00 6,8 C 6,1 C 3,3 C 83 % 1006,6 hPa 0,0 l/m 0 min 0 min 0 W/m 35,4 km/h (5 Bft) 97,87 %
21.02.2022 18:02 6,8 C 6,1 C 3,3 C 83 % 1006,6 hPa 0,0 l/m 0 min 0 min 0 W/m 32,2 km/h (5 Bft) 97,87 %
21.02.2022 18:04 6,8 C 6,1 C 3,3 C 83 % 1006,6 hPa 0,0 l/m 0 min 0 min 0 W/m 22,5 km/h (4 Bft) 97,83 %
21.02.2022 18:06 6,8 C 6,1 C 3,3 C 83 % 1006,5 hPa 0,0 l/m 0 min 0 min 0 W/m 22,5 km/h (4 Bft) 97,87 %
21.02.2022 18:08 6,8 C 6,1 C 3,3 C 83 % 1006,6 hPa 0,0 l/m 0 min 0 min 0 W/m 16,1 km/h (3 Bft) 97,87 %
21.02.2022 18:10 6,8 C 6,1 C 3,3 C 83 % 1006,6 hPa 0,0 l/m 0 min 0 min 0 W/m 22,5 km/h (4 Bft) 100,00 %
21.02.2022 18:12 6,7 C 6,1 C 3,3 C 84 % 1006,7 hPa 0,0 l/m 0 min 0 min 0 W/m 19,3 km/h (3 Bft) 97,87 %
21.02.2022 18:14 6,7 C 6,1 C 3,3 C 84 % 1006,9 hPa 0,0 l/m 0 min 0 min 0 W/m 32,2 km/h (5 Bft) 100,00 %
21.02.2022 18:16 6,7 C 6,1 C 3,3 C 84 % 1006,9 hPa 0,0 l/m 0 min 0 min 0 W/m 16,1 km/h (3 Bft) 100,00 %
21.02.2022 18:18 6,7 C 6,1 C 3,3 C 84 % 1007,0 hPa 0,0 l/m 0 min 0 min 0 W/m 29,0 km/h (5 Bft) 100,00 %
21.02.2022 18:20 6,7 C 6,1 C 3,3 C 84 % 1007,0 hPa 0,0 l/m 0 min 0 min 0 W/m 25,7 km/h (4 Bft) 100,00 %
21.02.2022 18:22 6,7 C 6,1 C 3,3 C 85 % 1007,0 hPa 0,0 l/m 0 min 0 min 0 W/m 12,9 km/h (3 Bft) 97,87 %
21.02.2022 18:24 6,6 C 6,1 C 3,3 C 85 % 1007,2 hPa 0,0 l/m 0 min 0 min 0 W/m 22,5 km/h (4 Bft) 100,00 %
21.02.2022 18:26 6,6 C 6,1 C 2,8 C 85 % 1007,2 hPa 0,0 l/m 0 min 0 min 0 W/m 19,3 km/h (3 Bft) 97,87 %
21.02.2022 18:28 6,6 C 6,1 C 2,8 C 85 % 1007,3 hPa 0,0 l/m 0 min 0 min 0 W/m 19,3 km/h (3 Bft) 100,00 %
21.02.2022 18:30 6,6 C 5,6 C 2,8 C 85 % 1007,3 hPa 0,0 l/m 0 min 0 min 0 W/m 19,3 km/h (3 Bft) 100,00 %
21.02.2022 18:32 6,6 C 5,6 C 2,8 C 85 % 1007,3 hPa 0,0 l/m 0 min 0 min 0 W/m 12,9 km/h (3 Bft) 100,00 %
21.02.2022 18:34 6,6 C 6,1 C 2,8 C 85 % 1007,4 hPa 0,0 l/m 0 min 0 min 0 W/m 19,3 km/h (3 Bft) 100,00 %
21.02.2022 18:36 6,6 C 6,1 C 2,8 C 85 % 1007,5 hPa 0,0 l/m 0 min 0 min 0 W/m 22,5 km/h (4 Bft) 100,00 %
21.02.2022 18:38 6,5 C 5,6 C 2,8 C 86 % 1007,6 hPa 0,0 l/m 0 min 0 min 0 W/m 16,1 km/h (3 Bft) 100,00 %
21.02.2022 18:40 6,5 C 5,6 C 2,8 C 86 % 1007,6 hPa 0,0 l/m 0 min 0 min 0 W/m 16,1 km/h (3 Bft) 100,00 %
21.02.2022 18:42 6,5 C 5,6 C 2,8 C 86 % 1007,7 hPa 0,0 l/m 0 min 0 min 0 W/m 12,9 km/h (3 Bft) 100,00 %
21.02.2022 18:44 6,5 C 5,6 C 2,8 C 86 % 1007,8 hPa 0,0 l/m 0 min 0 min 0 W/m 19,3 km/h (3 Bft) 100,00 %
21.02.2022 18:46 6,4 C 5,6 C 2,8 C 87 % 1007,8 hPa 0,0 l/m 0 min 0 min 0 W/m 19,3 km/h (3 Bft) 97,87 %
21.02.2022 18:48 6,4 C 5,6 C 2,8 C 87 % 1007,9 hPa 0,0 l/m 0 min 0 min 0 W/m 19,3 km/h (3 Bft) 95,74 %
21.02.2022 18:50 6,4 C 5,6 C 2,8 C 87 % 1007,8 hPa 0,0 l/m 0 min 0 min 0 W/m 25,7 km/h (4 Bft) 100,00 %
21.02.2022 18:52 6,4 C 6,1 C 3,3 C 87 % 1007,9 hPa 0,0 l/m 0 min 0 min 0 W/m 25,7 km/h (4 Bft) 100,00 %
21.02.2022 18:54 6,5 C 6,1 C 3,3 C 87 % 1008,0 hPa 0,0 l/m 0 min 0 min 0 W/m 32,2 km/h (5 Bft) 100,00 %
21.02.2022 18:56 6,5 C 5,6 C 2,8 C 87 % 1008,0 hPa 0,0 l/m 0 min 0 min 0 W/m 38,6 km/h (5 Bft) 97,87 %
21.02.2022 18:58 6,4 C 5,6 C 2,8 C 87 % 1008,2 hPa 0,0 l/m 0 min 0 min 0 W/m 51,5 km/h (7 Bft) 100,00 %
21.02.2022 19:00 6,4 C 6,1 C 3,3 C 87 % 1008,2 hPa 0,0 l/m 0 min 0 min 0 W/m 25,7 km/h (4 Bft) 100,00 %
21.02.2022 19:02 6,5 C 5,6 C 3,3 C 87 % 1008,3 hPa 0,0 l/m 0 min 0 min 0 W/m 19,3 km/h (3 Bft) 95,65 %
21.02.2022 19:04 6,5 C 5,6 C 2,8 C 88 % 1008,2 hPa 0,0 l/m 0 min 0 min 0 W/m 25,7 km/h (4 Bft) 95,74 %
21.02.2022 19:06 6,4 C 5,6 C 2,8 C 88 % 1008,2 hPa 0,0 l/m 0 min 0 min 0 W/m 22,5 km/h (4 Bft) 97,87 %
21.02.2022 19:08 6,4 C 5,6 C 2,8 C 88 % 1008,4 hPa 0,0 l/m 0 min 0 min 0 W/m 19,3 km/h (3 Bft) 95,74 %
21.02.2022 19:10 6,3 C 5,6 C 2,8 C 88 % 1008,3 hPa 0,0 l/m 0 min 0 min 0 W/m 22,5 km/h (4 Bft) 95,74 %
21.02.2022 19:12 6,3 C 5,6 C 2,8 C 88 % 1008,4 hPa 0,0 l/m 0 min 2 min 0 W/m 12,9 km/h (3 Bft) 97,87 %
21.02.2022 19:14 6,3 C 5,6 C 2,8 C 89 % 1008,5 hPa 0,0 l/m 0 min 0 min 0 W/m 19,3 km/h (3 Bft) 95,65 %
21.02.2022 19:16 6,3 C 5,6 C 2,8 C 89 % 1008,5 hPa 0,0 l/m 0 min 0 min 0 W/m 16,1 km/h (3 Bft) 96,23 %
21.02.2022 19:18 6,4 C 5,6 C 3,3 C 89 % 1008,6 hPa 0,0 l/m 0 min 0 min 0 W/m 22,5 km/h (4 Bft) 95,74 %
21.02.2022 19:20 6,4 C 5,6 C 3,3 C 89 % 1008,6 hPa 0,0 l/m 0 min 0 min 0 W/m 16,1 km/h (3 Bft) 95,12 %
21.02.2022 19:22 6,4 C 5,6 C 3,3 C 89 % 1008,7 hPa 0,0 l/m 0 min 0 min 0 W/m 19,3 km/h (3 Bft) 91,49 %
21.02.2022 19:24 6,4 C 5,6 C 2,8 C 89 % 1008,6 hPa 0,0 l/m 0 min 0 min 0 W/m 12,9 km/h (3 Bft) 95,74 %
21.02.2022 19:26 6,4 C 5,6 C 3,3 C 89 % 1008,7 hPa 0,0 l/m 0 min 0 min 0 W/m 16,1 km/h (3 Bft) 95,65 %
21.02.2022 19:28 6,4 C 5,6 C 3,3 C 89 % 1008,8 hPa 0,0 l/m 0 min 0 min 0 W/m 19,3 km/h (3 Bft) 93,62 %
21.02.2022 19:30 6,5 C 6,1 C 3,3 C 89 % 1008,7 hPa 0,0 l/m 0 min 0 min 0 W/m 22,5 km/h (4 Bft) 93,62 %
21.02.2022 19:32 6,5 C 6,1 C 3,3 C 89 % 1008,8 hPa 0,0 l/m 0 min 0 min 0 W/m 19,3 km/h (3 Bft) 96,23 %
21.02.2022 19:34 6,5 C 6,1 C 3,3 C 88 % 1008,8 hPa 0,0 l/m 0 min 2 min 0 W/m 22,5 km/h (4 Bft) 91,49 %
21.02.2022 19:36 6,6 C 6,1 C 3,3 C 88 % 1008,8 hPa 0,0 l/m 0 min 2 min 0 W/m 12,9 km/h (3 Bft) 93,48 %
21.02.2022 19:38 6,6 C 6,1 C 3,3 C 88 % 1009,0 hPa 0,0 l/m 0 min 0 min 0 W/m 25,7 km/h (4 Bft) 91,49 %
21.02.2022 19:40 6,6 C 6,1 C 3,3 C 88 % 1009,1 hPa 0,0 l/m 0 min 0 min 0 W/m 12,9 km/h (3 Bft) 93,62 %
21.02.2022 19:42 6,6 C 6,1 C 3,3 C 88 % 1009,2 hPa 0,0 l/m 0 min 0 min 0 W/m 19,3 km/h (3 Bft) 93,62 %
21.02.2022 19:44 6,6 C 6,1 C 3,3 C 87 % 1009,2 hPa 0,0 l/m 0 min 0 min 0 W/m 25,7 km/h (4 Bft) 93,62 %
21.02.2022 19:46 6,6 C 6,1 C 3,3 C 87 % 1009,2 hPa 0,0 l/m 0 min 0 min 0 W/m 22,5 km/h (4 Bft) 93,62 %
21.02.2022 19:48 6,7 C 6,1 C 3,3 C 87 % 1009,3 hPa 0,0 l/m 0 min 0 min 0 W/m 16,1 km/h (3 Bft) 95,65 %
21.02.2022 19:50 6,7 C 6,1 C 3,3 C 87 % 1009,3 hPa 0,0 l/m 0 min 0 min 0 W/m 16,1 km/h (3 Bft) 95,74 %
21.02.2022 19:52 6,7 C 6,1 C 3,3 C 87 % 1009,3 hPa 0,0 l/m 0 min 0 min 0 W/m 22,5 km/h (4 Bft) 97,87 %
21.02.2022 19:54 6,7 C 6,1 C 3,3 C 87 % 1009,3 hPa 0,0 l/m 0 min 0 min 0 W/m 16,1 km/h (3 Bft) 93,62 %
21.02.2022 19:56 6,7 C 6,1 C 3,3 C 87 % 1009,3 hPa 0,0 l/m 0 min 0 min 0 W/m 16,1 km/h (3 Bft) 95,74 %
21.02.2022 19:58 6,7 C 6,1 C 3,3 C 87 % 1009,3 hPa 0,0 l/m 0 min 0 min 0 W/m 16,1 km/h (3 Bft) 95,92 %
21.02.2022 20:00 6,7 C 6,1 C 3,3 C 87 % 1009,4 hPa 0,0 l/m 0 min 0 min 0 W/m 16,1 km/h (3 Bft) 97,87 %
21.02.2022 20:02 6,7 C 6,1 C 3,3 C 87 % 1009,4 hPa 0,0 l/m 0 min 0 min 0 W/m 16,1 km/h (3 Bft) 97,14 %
21.02.2022 20:04 6,7 C 6,1 C 3,3 C 87 % 1009,4 hPa 0,0 l/m 0 min 2 min 0 W/m 19,3 km/h (3 Bft) 97,87 %
21.02.2022 20:06 6,7 C 6,1 C 3,3 C 88 % 1009,6 hPa 0,0 l/m 0 min 2 min 0 W/m 12,9 km/h (3 Bft) 100,00 %
21.02.2022 20:08 6,7 C 6,1 C 3,3 C 88 % 1009,6 hPa 0,0 l/m 0 min 2 min 0 W/m 19,3 km/h (3 Bft) 100,00 %
21.02.2022 20:10 6,7 C 6,1 C 3,3 C 88 % 1009,6 hPa 0,0 l/m 0 min 2 min 0 W/m 25,7 km/h (4 Bft) 100,00 %
21.02.2022 20:12 6,7 C 6,1 C 3,3 C 88 % 1009,6 hPa 0,0 l/m 0 min 2 min 0 W/m 22,5 km/h (4 Bft) 100,00 %
21.02.2022 20:14 6,7 C 6,1 C 3,3 C 88 % 1009,7 hPa 0,0 l/m 0 min 2 min 0 W/m 25,7 km/h (4 Bft) 100,00 %
21.02.2022 20:16 6,8 C 6,1 C 3,3 C 88 % 1009,7 hPa 0,0 l/m 0 min 2 min 0 W/m 22,5 km/h (4 Bft) 100,00 %
21.02.2022 20:18 6,8 C 6,1 C 3,3 C 88 % 1009,7 hPa 0,0 l/m 0 min 2 min 0 W/m 25,7 km/h (4 Bft) 100,00 %
21.02.2022 20:20 6,7 C 6,1 C 3,3 C 88 % 1009,8 hPa 0,0 l/m 0 min 2 min 0 W/m 32,2 km/h (5 Bft) 100,00 %
21.02.2022 20:22 6,7 C 6,1 C 3,3 C 88 % 1009,9 hPa 0,0 l/m 0 min 2 min 0 W/m 22,5 km/h (4 Bft) 100,00 %
21.02.2022 20:24 6,7 C 6,1 C 3,3 C 88 % 1009,9 hPa 0,0 l/m 0 min 2 min 0 W/m 19,3 km/h (3 Bft) 100,00 %
21.02.2022 20:26 6,7 C 6,1 C 3,3 C 88 % 1010,0 hPa 0,0 l/m 0 min 2 min 0 W/m 16,1 km/h (3 Bft) 100,00 %
21.02.2022 20:28 6,7 C 6,1 C 3,3 C 89 % 1010,1 hPa 0,0 l/m 0 min 2 min 0 W/m 38,6 km/h (5 Bft) 100,00 %
21.02.2022 20:30 6,7 C 6,1 C 2,8 C 89 % 1010,2 hPa 0,0 l/m 0 min 2 min 0 W/m 22,5 km/h (4 Bft) 100,00 %
21.02.2022 20:32 6,6 C 6,1 C 2,8 C 89 % 1010,2 hPa 0,0 l/m 0 min 2 min 0 W/m 19,3 km/h (3 Bft) 100,00 %
21.02.2022 20:34 6,6 C 6,1 C 2,8 C 89 % 1010,3 hPa 0,0 l/m 0 min 2 min 0 W/m 25,7 km/h (4 Bft) 100,00 %
21.02.2022 20:36 6,7 C 6,1 C 3,3 C 89 % 1010,4 hPa 0,0 l/m 0 min 2 min 0 W/m 19,3 km/h (3 Bft) 100,00 %
21.02.2022 20:38 6,7 C 6,1 C 3,3 C 90 % 1010,5 hPa 0,0 l/m 0 min 2 min 0 W/m 22,5 km/h (4 Bft) 100,00 %
21.02.2022 20:40 6,8 C 6,1 C 3,3 C 90 % 1010,5 hPa 0,0 l/m 0 min 2 min 0 W/m 16,1 km/h (3 Bft) 97,87 %
21.02.2022 20:42 6,8 C 6,1 C 3,3 C 90 % 1010,5 hPa 0,0 l/m 0 min 2 min 0 W/m 25,7 km/h (4 Bft) 100,00 %
21.02.2022 20:44 6,8 C 6,1 C 3,3 C 90 % 1010,5 hPa 0,2 l/m 0 min 2 min 0 W/m 41,8 km/h (6 Bft) 100,00 %
21.02.2022 20:46 6,8 C 6,1 C 3,3 C 90 % 1010,7 hPa 0,0 l/m 0 min 2 min 0 W/m 22,5 km/h (4 Bft) 100,00 %
21.02.2022 20:48 6,8 C 6,1 C 3,3 C 90 % 1010,7 hPa 0,0 l/m 0 min 2 min 0 W/m 35,4 km/h (5 Bft) 100,00 %
21.02.2022 20:50 6,8 C 6,1 C 3,3 C 90 % 1010,7 hPa 0,0 l/m 0 min 2 min 0 W/m 32,2 km/h (5 Bft) 100,00 %
21.02.2022 20:52 6,7 C 6,1 C 2,8 C 90 % 1010,8 hPa 0,0 l/m 0 min 2 min 0 W/m 19,3 km/h (3 Bft) 100,00 %
21.02.2022 20:54 6,7 C 6,1 C 2,8 C 90 % 1010,9 hPa 0,0 l/m 0 min 2 min 0 W/m 25,7 km/h (4 Bft) 100,00 %
21.02.2022 20:56 6,7 C 6,1 C 2,8 C 90 % 1011,1 hPa 0,0 l/m 0 min 0 min 0 W/m 22,5 km/h (4 Bft) 100,00 %
21.02.2022 20:58 6,7 C 6,1 C 3,3 C 90 % 1011,1 hPa 0,0 l/m 0 min 0 min 0 W/m 29,0 km/h (5 Bft) 100,00 %
21.02.2022 21:00 6,7 C 6,1 C 3,3 C 90 % 1011,2 hPa 0,0 l/m 0 min 2 min 0 W/m 29,0 km/h (5 Bft) 100,00 %
21.02.2022 21:02 6,7 C 6,1 C 3,3 C 90 % 1011,3 hPa 0,0 l/m 0 min 0 min 0 W/m 25,7 km/h (4 Bft) 100,00 %
21.02.2022 21:04 6,7 C 6,1 C 3,3 C 90 % 1011,3 hPa 0,0 l/m 0 min 0 min 0 W/m 25,7 km/h (4 Bft) 100,00 %
21.02.2022 21:06 6,8 C 6,1 C 3,3 C 90 % 1011,3 hPa 0,0 l/m 0 min 0 min 0 W/m 25,7 km/h (4 Bft) 100,00 %
21.02.2022 21:08 6,8 C 6,1 C 3,3 C 89 % 1011,4 hPa 0,0 l/m 0 min 0 min 0 W/m 22,5 km/h (4 Bft) 100,00 %
21.02.2022 21:10 6,8 C 6,1 C 3,3 C 89 % 1011,4 hPa 0,0 l/m 0 min 0 min 0 W/m 25,7 km/h (4 Bft) 100,00 %
21.02.2022 21:12 6,8 C 6,1 C 3,3 C 89 % 1011,5 hPa 0,0 l/m 0 min 0 min 0 W/m 19,3 km/h (3 Bft) 100,00 %
21.02.2022 21:14 6,8 C 6,1 C 3,3 C 89 % 1011,5 hPa 0,0 l/m 0 min 0 min 0 W/m 19,3 km/h (3 Bft) 97,87 %
21.02.2022 21:16 6,8 C 6,1 C 3,3 C 89 % 1011,6 hPa 0,0 l/m 0 min 0 min 0 W/m 19,3 km/h (3 Bft) 100,00 %
21.02.2022 21:18 6,8 C 6,1 C 3,3 C 88 % 1011,7 hPa 0,0 l/m 0 min 0 min 0 W/m 19,3 km/h (3 Bft) 100,00 %
21.02.2022 21:20 6,8 C 6,1 C 3,3 C 88 % 1011,8 hPa 0,0 l/m 0 min 0 min 0 W/m 22,5 km/h (4 Bft) 100,00 %
21.02.2022 21:22 6,8 C 6,1 C 3,3 C 88 % 1011,9 hPa 0,0 l/m 0 min 0 min 0 W/m 22,5 km/h (4 Bft) 97,83 %
21.02.2022 21:24 6,8 C 6,1 C 3,3 C 88 % 1011,9 hPa 0,0 l/m 0 min 0 min 0 W/m 22,5 km/h (4 Bft) 100,00 %
21.02.2022 21:26 6,8 C 6,1 C 3,3 C 88 % 1011,9 hPa 0,0 l/m 0 min 0 min 0 W/m 16,1 km/h (3 Bft) 100,00 %
21.02.2022 21:28 6,8 C 6,1 C 3,3 C 88 % 1012,0 hPa 0,0 l/m 0 min 0 min 0 W/m 29,0 km/h (5 Bft) 95,74 %
21.02.2022 21:30 6,8 C 6,1 C 3,3 C 88 % 1012,1 hPa 0,0 l/m 0 min 0 min 0 W/m 25,7 km/h (4 Bft) 97,87 %
21.02.2022 21:32 6,9 C 6,1 C 3,3 C 87 % 1012,1 hPa 0,0 l/m 0 min 0 min 0 W/m 22,5 km/h (4 Bft) 95,74 %
21.02.2022 21:34 6,9 C 6,1 C 3,3 C 87 % 1012,1 hPa 0,0 l/m 0 min 0 min 0 W/m 25,7 km/h (4 Bft) 97,83 %
21.02.2022 21:36 6,9 C 6,1 C 3,3 C 87 % 1012,2 hPa 0,0 l/m 0 min 0 min 0 W/m 22,5 km/h (4 Bft) 97,87 %
21.02.2022 21:38 6,9 C 6,1 C 3,3 C 87 % 1012,2 hPa 0,0 l/m 0 min 0 min 0 W/m 16,1 km/h (3 Bft) 95,74 %
21.02.2022 21:40 6,9 C 6,1 C 3,3 C 87 % 1012,3 hPa 0,0 l/m 0 min 0 min 0 W/m 32,2 km/h (5 Bft) 93,62 %
21.02.2022 21:42 6,9 C 6,1 C 3,3 C 87 % 1012,4 hPa 0,0 l/m 0 min 0 min 0 W/m 19,3 km/h (3 Bft) 95,74 %
21.02.2022 21:44 6,9 C 6,1 C 3,3 C 87 % 1012,5 hPa 0,0 l/m 0 min 0 min 0 W/m 22,5 km/h (4 Bft) 93,62 %
21.02.2022 21:46 6,9 C 6,1 C 3,3 C 86 % 1012,5 hPa 0,0 l/m 0 min 0 min 0 W/m 32,2 km/h (5 Bft) 95,65 %
21.02.2022 21:48 6,9 C 6,1 C 3,3 C 86 % 1012,6 hPa 0,0 l/m 0 min 0 min 0 W/m 25,7 km/h (4 Bft) 93,62 %
21.02.2022 21:50 6,9 C 6,1 C 3,3 C 85 % 1012,7 hPa 0,0 l/m 0 min 0 min 0 W/m 22,5 km/h (4 Bft) 95,74 %
21.02.2022 21:52 6,9 C 6,1 C 3,3 C 85 % 1012,8 hPa 0,0 l/m 0 min 0 min 0 W/m 19,3 km/h (3 Bft) 95,74 %
21.02.2022 21:54 6,9 C 6,1 C 3,3 C 85 % 1012,8 hPa 0,0 l/m 0 min 0 min 0 W/m 16,1 km/h (3 Bft) 95,74 %
21.02.2022 21:56 6,9 C 6,1 C 3,3 C 85 % 1012,9 hPa 0,0 l/m 0 min 0 min 0 W/m 16,1 km/h (3 Bft) 93,48 %
21.02.2022 21:58 6,9 C 6,1 C 3,3 C 85 % 1012,8 hPa 0,0 l/m 0 min 0 min 0 W/m 29,0 km/h (5 Bft) 97,87 %
21.02.2022 22:00 6,9 C 6,1 C 3,3 C 85 % 1012,9 hPa 0,0 l/m 0 min 0 min 0 W/m 25,7 km/h (4 Bft) 97,87 %
21.02.2022 22:02 6,9 C 6,1 C 3,3 C 85 % 1013,0 hPa 0,0 l/m 0 min 0 min 0 W/m 16,1 km/h (3 Bft) 95,74 %
21.02.2022 22:04 6,9 C 6,1 C 3,3 C 86 % 1013,0 hPa 0,0 l/m 0 min 0 min 0 W/m 25,7 km/h (4 Bft) 97,87 %
21.02.2022 22:06 6,9 C 6,1 C 3,3 C 86 % 1013,1 hPa 0,0 l/m 0 min 0 min 0 W/m 12,9 km/h (3 Bft) 97,87 %
21.02.2022 22:08 6,8 C 6,1 C 3,3 C 86 % 1013,1 hPa 0,0 l/m 0 min 0 min 0 W/m 25,7 km/h (4 Bft) 97,87 %
21.02.2022 22:10 6,8 C 6,1 C 3,3 C 86 % 1013,2 hPa 0,0 l/m 0 min 0 min 0 W/m 19,3 km/h (3 Bft) 95,65 %
21.02.2022 22:12 6,8 C 6,1 C 3,3 C 86 % 1013,2 hPa 0,0 l/m 0 min 0 min 0 W/m 16,1 km/h (3 Bft) 93,62 %
21.02.2022 22:14 6,8 C 6,1 C 3,3 C 86 % 1013,3 hPa 0,0 l/m 0 min 0 min 0 W/m 16,1 km/h (3 Bft) 97,87 %
21.02.2022 22:16 6,7 C 6,1 C 3,3 C 86 % 1013,3 hPa 0,0 l/m 0 min 0 min 0 W/m 25,7 km/h (4 Bft) 95,74 %
21.02.2022 22:18 6,7 C 6,1 C 3,3 C 86 % 1013,5 hPa 0,0 l/m 0 min 0 min 0 W/m 16,1 km/h (3 Bft) 95,74 %
21.02.2022 22:20 6,7 C 6,1 C 3,3 C 87 % 1013,5 hPa 0,0 l/m 0 min 0 min 0 W/m 19,3 km/h (3 Bft) 95,65 %
21.02.2022 22:22 6,7 C 6,1 C 3,3 C 87 % 1013,6 hPa 0,0 l/m 0 min 0 min 0 W/m 35,4 km/h (5 Bft) 93,62 %
21.02.2022 22:24 6,7 C 6,1 C 3,3 C 87 % 1013,7 hPa 0,0 l/m 0 min 0 min 0 W/m 32,2 km/h (5 Bft) 97,87 %
21.02.2022 22:26 6,7 C 6,1 C 3,3 C 87 % 1013,7 hPa 0,0 l/m 0 min 0 min 0 W/m 22,5 km/h (4 Bft) 95,74 %
21.02.2022 22:28 6,7 C 6,1 C 3,3 C 87 % 1013,9 hPa 0,0 l/m 0 min 0 min 0 W/m 25,7 km/h (4 Bft) 97,87 %
21.02.2022 22:30 6,7 C 6,1 C 3,3 C 87 % 1013,9 hPa 0,0 l/m 0 min 0 min 0 W/m 19,3 km/h (3 Bft) 95,74 %
21.02.2022 22:32 6,7 C 6,1 C 3,3 C 87 % 1013,9 hPa 0,0 l/m 0 min 0 min 0 W/m 19,3 km/h (3 Bft) 97,83 %
21.02.2022 22:34 6,7 C 6,1 C 3,3 C 87 % 1013,9 hPa 0,0 l/m 0 min 0 min 0 W/m 16,1 km/h (3 Bft) 97,87 %
21.02.2022 22:36 6,7 C 6,1 C 3,3 C 87 % 1014,1 hPa 0,0 l/m 0 min 0 min 0 W/m 32,2 km/h (5 Bft) 97,87 %
21.02.2022 22:38 6,7 C 6,1 C 3,3 C 87 % 1014,1 hPa 0,0 l/m 0 min 0 min 0 W/m 32,2 km/h (5 Bft) 97,87 %
21.02.2022 22:40 6,7 C 6,1 C 3,3 C 87 % 1014,2 hPa 0,0 l/m 0 min 0 min 0 W/m 16,1 km/h (3 Bft) 97,87 %
21.02.2022 22:42 6,7 C 6,1 C 3,3 C 87 % 1014,4 hPa 0,0 l/m 0 min 0 min 0 W/m 19,3 km/h (3 Bft) 97,87 %
21.02.2022 22:44 6,7 C 6,1 C 3,3 C 87 % 1014,4 hPa 0,0 l/m 0 min 0 min 0 W/m 19,3 km/h (3 Bft) 97,83 %
21.02.2022 22:46 6,7 C 6,1 C 3,3 C 87 % 1014,4 hPa 0,0 l/m 0 min 0 min 0 W/m 19,3 km/h (3 Bft) 97,87 %
21.02.2022 22:48 6,7 C 6,1 C 3,3 C 87 % 1014,4 hPa 0,0 l/m 0 min 0 min 0 W/m 19,3 km/h (3 Bft) 95,74 %
21.02.2022 22:50 6,6 C 6,1 C 3,3 C 87 % 1014,5 hPa 0,0 l/m 0 min 0 min 0 W/m 16,1 km/h (3 Bft) 95,74 %
21.02.2022 22:52 6,6 C 6,1 C 3,3 C 87 % 1014,5 hPa 0,0 l/m 0 min 0 min 0 W/m 16,1 km/h (3 Bft) 95,74 %
21.02.2022 22:54 6,6 C 6,1 C 3,3 C 87 % 1014,6 hPa 0,0 l/m 0 min 0 min 0 W/m 19,3 km/h (3 Bft) 97,87 %
21.02.2022 22:56 6,6 C 6,1 C 3,3 C 87 % 1014,6 hPa 0,0 l/m 0 min 0 min 0 W/m 16,1 km/h (3 Bft) 97,83 %
21.02.2022 22:58 6,6 C 6,1 C 3,3 C 87 % 1014,6 hPa 0,0 l/m 0 min 0 min 0 W/m 16,1 km/h (3 Bft) 97,87 %
21.02.2022 23:00 6,6 C 6,1 C 3,3 C 87 % 1014,6 hPa 0,0 l/m 0 min 0 min 0 W/m 25,7 km/h (4 Bft) 97,87 %
21.02.2022 23:02 6,6 C 6,1 C 3,3 C 87 % 1014,5 hPa 0,0 l/m 0 min 0 min 0 W/m 16,1 km/h (3 Bft) 100,00 %
21.02.2022 23:04 6,6 C 6,1 C 3,3 C 87 % 1014,7 hPa 0,0 l/m 0 min 0 min 0 W/m 19,3 km/h (3 Bft) 100,00 %
21.02.2022 23:06 6,6 C 6,1 C 3,3 C 87 % 1014,7 hPa 0,0 l/m 0 min 0 min 0 W/m 19,3 km/h (3 Bft) 100,00 %
21.02.2022 23:08 6,6 C 6,1 C 3,3 C 87 % 1014,7 hPa 0,0 l/m 0 min 0 min 0 W/m 12,9 km/h (3 Bft) 100,00 %
21.02.2022 23:10 6,6 C 6,1 C 3,3 C 87 % 1014,8 hPa 0,0 l/m 0 min 0 min 0 W/m 19,3 km/h (3 Bft) 100,00 %
21.02.2022 23:12 6,5 C 6,1 C 3,3 C 87 % 1014,7 hPa 0,0 l/m 0 min 0 min 0 W/m 12,9 km/h (3 Bft) 95,74 %
21.02.2022 23:14 6,5 C 6,1 C 3,3 C 87 % 1014,7 hPa 0,0 l/m 0 min 0 min 0 W/m 16,1 km/h (3 Bft) 97,87 %
21.02.2022 23:16 6,5 C 5,6 C 2,8 C 87 % 1014,8 hPa 0,0 l/m 0 min 0 min 0 W/m 12,9 km/h (3 Bft) 100,00 %
21.02.2022 23:18 6,5 C 5,6 C 2,8 C 87 % 1014,9 hPa 0,0 l/m 0 min 0 min 0 W/m 19,3 km/h (3 Bft) 100,00 %
21.02.2022 23:20 6,4 C 5,6 C 2,8 C 87 % 1014,9 hPa 0,0 l/m 0 min 0 min 0 W/m 22,5 km/h (4 Bft) 100,00 %
21.02.2022 23:22 6,4 C 5,6 C 2,8 C 87 % 1015,0 hPa 0,0 l/m 0 min 0 min 0 W/m 12,9 km/h (3 Bft) 97,87 %
21.02.2022 23:24 6,4 C 5,6 C 2,8 C 87 % 1015,0 hPa 0,0 l/m 0 min 0 min 0 W/m 16,1 km/h (3 Bft) 97,87 %
21.02.2022 23:26 6,3 C 5,6 C 2,8 C 87 % 1015,1 hPa 0,0 l/m 0 min 0 min 0 W/m 19,3 km/h (3 Bft) 97,87 %
21.02.2022 23:28 6,3 C 5,6 C 2,8 C 87 % 1015,1 hPa 0,0 l/m 0 min 0 min 0 W/m 19,3 km/h (3 Bft) 97,87 %
21.02.2022 23:30 6,3 C 5,6 C 2,8 C 88 % 1015,2 hPa 0,0 l/m 0 min 0 min 0 W/m 22,5 km/h (4 Bft) 97,83 %
21.02.2022 23:32 6,2 C 5,6 C 2,8 C 87 % 1015,3 hPa 0,0 l/m 0 min 0 min 0 W/m 25,7 km/h (4 Bft) 95,74 %
21.02.2022 23:34 6,2 C 5,6 C 2,8 C 88 % 1015,4 hPa 0,0 l/m 0 min 0 min 0 W/m 19,3 km/h (3 Bft) 97,87 %
21.02.2022 23:36 6,2 C 5,6 C 2,8 C 88 % 1015,4 hPa 0,0 l/m 0 min 0 min 0 W/m 16,1 km/h (3 Bft) 97,87 %
21.02.2022 23:38 6,2 C 5,6 C 2,8 C 88 % 1015,5 hPa 0,0 l/m 0 min 0 min 0 W/m 12,9 km/h (3 Bft) 97,87 %
21.02.2022 23:40 6,2 C 5,6 C 2,8 C 88 % 1015,4 hPa 0,0 l/m 0 min 0 min 0 W/m 19,3 km/h (3 Bft) 97,87 %
21.02.2022 23:42 6,1 C 5,6 C 2,8 C 88 % 1015,5 hPa 0,0 l/m 0 min 0 min 0 W/m 16,1 km/h (3 Bft) 97,83 %
21.02.2022 23:44 6,1 C 5,6 C 2,8 C 88 % 1015,5 hPa 0,0 l/m 0 min 0 min 0 W/m 19,3 km/h (3 Bft) 97,87 %
21.02.2022 23:46 6,1 C 5,6 C 2,8 C 88 % 1015,6 hPa 0,0 l/m 0 min 0 min 0 W/m 12,9 km/h (3 Bft) 97,87 %
21.02.2022 23:48 6,1 C 5,6 C 2,8 C 88 % 1015,6 hPa 0,0 l/m 0 min 0 min 0 W/m 29,0 km/h (5 Bft) 97,87 %
21.02.2022 23:50 6,1 C 5,6 C 2,8 C 88 % 1015,7 hPa 0,0 l/m 0 min 0 min 0 W/m 19,3 km/h (3 Bft) 97,87 %
21.02.2022 23:52 6,1 C 5,6 C 2,8 C 88 % 1015,6 hPa 0,0 l/m 0 min 0 min 0 W/m 22,5 km/h (4 Bft) 97,87 %
21.02.2022 23:54 6,1 C 5,6 C 2,8 C 88 % 1015,6 hPa 0,0 l/m 0 min 0 min 0 W/m 16,1 km/h (3 Bft) 97,83 %
21.02.2022 23:56 6,0 C 5,0 C 2,8 C 88 % 1015,7 hPa 0,0 l/m 0 min 0 min 0 W/m 12,9 km/h (3 Bft) 100,00 %
21.02.2022 23:58 5,9 C 5,0 C 2,8 C 88 % 1015,7 hPa 0,0 l/m 0 min 0 min 0 W/m 9,7 km/h (2 Bft) 95,74 %
_ Min-Zeit 07:18 07:12 07:10 10:12 00:02 - - - - 23:58 07:46
Minimum _ 2,1 C 1,1 C -1,1 C 77 % 996,4 hPa - - - - 9,7 km/h (2 Bft) 53,33 %
_ Max-Zeit 17:12 10:04 15:20 14:20 23:50 12:08 09:02 00:08 10:10 11:02 00:00
Maximum _ 7,2 C 7,8 C 3,3 C 95 % 1015,7 hPa 0,4 l/m 2 min 4 min 360 W/m 74,0 km/h
W-SW (8 Bft)
100,00 %
Durchschnitt _ 5,5 C 4,9 C 1,9 C 88 % 1002,6 hPa #6,0 l/m #38 min. #9:14 h 73 W/m 28,0 km/h (4 Bft) 97,50 %
© 2022 W. Hausmann